Time,TemperatureF,DewpointF,PressureIn,WindDirection,WindDirectionDegrees,WindSpeedMPH,WindSpeedGustMPH,Humidity,HourlyPrecipIn,Conditions,Clouds,dailyrainin,SoftwareType,DateUTC
2013-04-21 00:01:00,37.2,28.0,30.23,NNW,347,0.0,0.0,69,0.00,CLR,SCT,0.00,WeatherDisplay:10.37,2013-04-21 04:01:00,
2013-04-21 00:02:00,37.2,28.0,30.23,NNW,347,0.0,0.0,69,0.00,CLR,SCT,0.00,WeatherDisplay:10.37,2013-04-21 04:02:00,
2013-04-21 00:04:00,37.0,27.8,30.23,NNW,347,0.0,0.0,69,0.00,CLR,SCT,0.00,WeatherDisplay:10.37,2013-04-21 04:04:00,
2013-04-21 00:05:00,37.0,27.8,30.23,NNW,347,0.0,0.0,69,0.00,CLR,SCT,0.00,WeatherDisplay:10.37,2013-04-21 04:05:00,
2013-04-21 00:06:00,37.0,27.8,30.23,NNW,347,0.0,0.0,69,0.00,CLR,SCT,0.00,WeatherDisplay:10.37,2013-04-21 04:06:00,
2013-04-21 00:07:00,37.0,27.8,30.23,NNW,347,0.0,0.0,69,0.00,CLR,SCT,0.00,WeatherDisplay:10.37,2013-04-21 04:07:00,
2013-04-21 00:10:00,36.9,27.7,30.23,NNW,347,0.0,0.0,69,0.00,CLR,SCT,0.00,WeatherDisplay:10.37,2013-04-21 04:10:00,
2013-04-21 00:12:00,36.8,27.6,30.23,NNW,347,0.0,0.0,69,0.00,CLR,SCT,0.00,WeatherDisplay:10.37,2013-04-21 04:12:00,
2013-04-21 00:13:00,36.8,27.6,30.23,NNW,347,0.0,0.0,69,0.00,CLR,SCT,0.00,WeatherDisplay:10.37,2013-04-21 04:13:00,
2013-04-21 00:15:00,36.6,27.4,30.23,NNW,347,0.0,0.0,69,0.00,CLR,SCT,0.00,WeatherDisplay:10.37,2013-04-21 04:15:00,
2013-04-21 00:16:00,36.6,27.4,30.23,NNW,347,0.0,0.0,69,0.00,CLR,SCT,0.00,WeatherDisplay:10.37,2013-04-21 04:16:00,
2013-04-21 00:17:00,36.6,27.4,30.23,NNW,347,0.0,0.0,69,0.00,CLR,SCT,0.00,WeatherDisplay:10.37,2013-04-21 04:17:00,
2013-04-21 00:21:00,36.3,27.1,30.24,NNW,347,0.0,0.0,69,0.00,CLR,SCT,0.00,WeatherDisplay:10.37,2013-04-21 04:21:00,
2013-04-21 00:22:00,36.3,27.1,30.24,NNW,347,0.0,0.0,69,0.00,CLR,SCT,0.00,WeatherDisplay:10.37,2013-04-21 04:22:00,
2013-04-21 00:23:00,36.3,27.1,30.24,NNW,347,0.0,0.0,69,0.00,CLR,SCT,0.00,WeatherDisplay:10.37,2013-04-21 04:23:00,
2013-04-21 00:24:00,36.3,27.1,30.24,NNW,347,0.0,0.0,69,0.00,CLR,SCT,0.00,WeatherDisplay:10.37,2013-04-21 04:24:00,
2013-04-21 00:27:00,36.2,27.0,30.24,NNW,347,0.0,0.0,69,0.00,CLR,SCT,0.00,WeatherDisplay:10.37,2013-04-21 04:27:00,
2013-04-21 00:28:00,36.2,27.0,30.24,NNW,347,0.0,0.0,69,0.00,CLR,SCT,0.00,WeatherDisplay:10.37,2013-04-21 04:28:00,
2013-04-21 00:29:00,36.0,26.8,30.24,NNW,347,0.0,0.0,69,0.00,CLR,SCT,0.00,WeatherDisplay:10.37,2013-04-21 04:29:00,
2013-04-21 00:33:00,36.0,26.8,30.24,NNW,347,0.0,0.0,69,0.00,CLR,SCT,0.00,WeatherDisplay:10.37,2013-04-21 04:33:00,
2013-04-21 00:35:00,35.9,26.7,30.24,NNW,347,0.0,0.0,69,0.00,CLR,SCT,0.00,WeatherDisplay:10.37,2013-04-21 04:35:00,
2013-04-21 00:40:00,35.9,27.1,30.24,NNW,347,0.0,0.0,70,0.00,CLR,SCT,0.00,WeatherDisplay:10.37,2013-04-21 04:40:00,
2013-04-21 00:41:00,35.9,27.1,30.24,NNW,347,0.0,0.0,70,0.00,CLR,SCT,0.00,WeatherDisplay:10.37,2013-04-21 04:41:00,
2013-04-21 00:42:00,35.9,27.1,30.24,NNW,347,0.0,0.0,70,0.00,CLR,SCT,0.00,WeatherDisplay:10.37,2013-04-21 04:42:00,
2013-04-21 00:43:00,35.9,27.1,30.24,NNW,347,0.0,0.0,70,0.00,CLR,SCT,0.00,WeatherDisplay:10.37,2013-04-21 04:43:00,
2013-04-21 00:45:00,35.9,27.1,30.24,NNW,347,0.0,0.0,70,0.00,CLR,SCT,0.00,WeatherDisplay:10.37,2013-04-21 04:45:00,
2013-04-21 00:48:00,35.9,27.1,30.24,NNW,347,0.0,0.0,70,0.00,CLR,SCT,0.00,WeatherDisplay:10.37,2013-04-21 04:48:00,
2013-04-21 00:50:00,35.8,27.0,30.24,NNW,347,0.0,0.0,70,0.00,CLR,SCT,0.00,WeatherDisplay:10.37,2013-04-21 04:50:00,
2013-04-21 00:51:00,35.8,27.0,30.24,NNW,347,0.0,0.0,70,0.00,CLR,SCT,0.00,WeatherDisplay:10.37,2013-04-21 04:51:00,
2013-04-21 00:52:00,35.8,27.0,30.24,NNW,347,0.0,0.0,70,0.00,CLR,SCT,0.00,WeatherDisplay:10.37,2013-04-21 04:52:00,
2013-04-21 00:53:00,35.8,27.0,30.24,NNW,347,0.0,0.0,70,0.00,CLR,SCT,0.00,WeatherDisplay:10.37,2013-04-21 04:53:00,
2013-04-21 00:55:00,35.8,27.0,30.24,NNW,347,0.0,0.0,70,0.00,CLR,SCT,0.00,WeatherDisplay:10.37,2013-04-21 04:55:00,
2013-04-21 00:57:00,35.8,27.0,30.24,NNW,347,0.0,0.0,70,0.00,CLR,SCT,0.00,WeatherDisplay:10.37,2013-04-21 04:57:00,
2013-04-21 00:58:00,35.8,27.0,30.24,NNW,347,0.0,0.0,70,0.00,CLR,SCT,0.00,WeatherDisplay:10.37,2013-04-21 04:58:00,
2013-04-21 00:59:00,35.8,27.0,30.24,NNW,347,0.0,0.0,70,0.00,CLR,SCT,0.00,WeatherDisplay:10.37,2013-04-21 04:59:00,
2013-04-21 01:00:00,35.8,27.0,30.24,NNW,347,0.0,0.0,70,0.00,CLR,SCT,0.00,WeatherDisplay:10.37,2013-04-21 05:00:00,
2013-04-21 01:05:00,35.6,27.1,30.24,NNW,347,0.0,0.0,71,0.00,CLR,SCT,0.00,WeatherDisplay:10.37,2013-04-21 05:05:00,
2013-04-21 01:06:00,35.6,27.1,30.24,NNW,347,0.0,0.0,71,0.00,,SCT,0.00,WeatherDisplay:10.37,2013-04-21 05:06:00,
2013-04-21 01:07:00,35.6,27.1,30.24,NNW,347,0.0,0.0,71,0.00,,SCT,0.00,WeatherDisplay:10.37,2013-04-21 05:07:00,
2013-04-21 01:11:00,35.8,27.3,30.24,NNW,347,0.0,0.0,71,0.00,,SCT,0.00,WeatherDisplay:10.37,2013-04-21 05:11:00,
2013-04-21 01:12:00,35.8,27.7,30.24,NNW,347,0.0,0.0,72,0.00,,SCT,0.00,WeatherDisplay:10.37,2013-04-21 05:12:00,
2013-04-21 01:14:00,35.8,27.3,30.24,NNW,347,0.0,0.0,71,0.00,,SCT,0.00,WeatherDisplay:10.37,2013-04-21 05:14:00,
2013-04-21 01:16:00,35.8,27.3,30.24,NNW,347,0.0,0.0,71,0.00,,SCT,0.00,WeatherDisplay:10.37,2013-04-21 05:16:00,
2013-04-21 01:17:00,35.8,27.3,30.24,NNW,347,0.0,0.0,71,0.00,,SCT,0.00,WeatherDisplay:10.37,2013-04-21 05:17:00,
2013-04-21 01:18:00,35.8,27.3,30.24,NNW,347,0.0,0.0,71,0.00,,SCT,0.00,WeatherDisplay:10.37,2013-04-21 05:18:00,
2013-04-21 01:21:00,35.8,27.7,30.24,NNW,347,0.0,0.0,72,0.00,,SCT,0.00,WeatherDisplay:10.37,2013-04-21 05:21:00,
2013-04-21 01:22:00,35.8,27.7,30.24,NNW,347,0.0,0.0,72,0.00,,SCT,0.00,WeatherDisplay:10.37,2013-04-21 05:22:00,
2013-04-21 01:24:00,35.8,27.7,30.24,NNW,347,0.0,0.0,72,0.00,,SCT,0.00,WeatherDisplay:10.37,2013-04-21 05:24:00,
2013-04-21 01:26:00,35.6,27.5,30.24,NNW,347,0.0,0.0,72,0.00,,SCT,0.00,WeatherDisplay:10.37,2013-04-21 05:26:00,
2013-04-21 01:27:00,35.6,27.5,30.24,NNW,347,0.0,0.0,72,0.00,,SCT,0.00,WeatherDisplay:10.37,2013-04-21 05:27:00,
2013-04-21 01:29:00,35.6,27.5,30.24,NNW,347,0.0,0.0,72,0.00,,SCT,0.00,WeatherDisplay:10.37,2013-04-21 05:29:00,
2013-04-21 01:31:00,35.6,27.8,30.24,NNW,347,0.0,0.0,73,0.00,,SCT,0.00,WeatherDisplay:10.37,2013-04-21 05:31:00,
2013-04-21 01:34:00,35.5,27.7,30.24,NNW,347,0.0,0.0,73,0.00,,SCT,0.00,WeatherDisplay:10.37,2013-04-21 05:34:00,
2013-04-21 01:36:00,35.5,27.7,30.24,NNW,347,0.0,0.0,73,0.00,,SCT,0.00,WeatherDisplay:10.37,2013-04-21 05:36:00,
2013-04-21 01:39:00,35.5,27.7,30.24,NNW,347,0.0,0.0,73,0.00,,SCT,0.00,WeatherDisplay:10.37,2013-04-21 05:39:00,
2013-04-21 01:41:00,35.3,27.5,30.24,NNW,347,0.0,0.0,73,0.00,,SCT,0.00,WeatherDisplay:10.37,2013-04-21 05:41:00,
2013-04-21 01:42:00,35.3,27.5,30.24,NNW,347,0.0,0.0,73,0.00,,SCT,0.00,WeatherDisplay:10.37,2013-04-21 05:42:00,
2013-04-21 01:43:00,35.2,27.4,30.24,NNW,347,0.0,0.0,73,0.00,,SCT,0.00,WeatherDisplay:10.37,2013-04-21 05:43:00,
2013-04-21 01:44:00,35.2,27.4,30.24,NNW,347,0.0,0.0,73,0.00,,SCT,0.00,WeatherDisplay:10.37,2013-04-21 05:44:00,
2013-04-21 01:46:00,35.0,27.2,30.24,NNW,347,0.0,0.0,73,0.00,,SCT,0.00,WeatherDisplay:10.37,2013-04-21 05:46:00,
2013-04-21 01:47:00,35.0,27.2,30.24,NNW,347,0.0,0.0,73,0.00,,SCT,0.00,WeatherDisplay:10.37,2013-04-21 05:47:00,
2013-04-21 01:48:00,35.0,27.2,30.25,NNW,347,0.0,0.0,73,0.00,,SCT,0.00,WeatherDisplay:10.37,2013-04-21 05:48:00,
2013-04-21 01:50:00,34.9,27.1,30.25,NNW,347,0.0,0.0,73,0.00,,SCT,0.00,WeatherDisplay:10.37,2013-04-21 05:50:00,
2013-04-21 01:51:00,34.9,27.1,30.24,NNW,347,0.0,0.0,73,0.00,,SCT,0.00,WeatherDisplay:10.37,2013-04-21 05:51:00,
2013-04-21 01:53:00,34.9,27.1,30.24,NNW,347,0.0,0.0,73,0.00,,SCT,0.00,WeatherDisplay:10.37,2013-04-21 05:53:00,
2013-04-21 01:54:00,34.9,27.1,30.24,NNW,347,0.0,0.0,73,0.00,,SCT,0.00,WeatherDisplay:10.37,2013-04-21 05:54:00,
2013-04-21 01:56:00,34.7,26.9,30.24,NNW,347,0.0,0.0,73,0.00,,SCT,0.00,WeatherDisplay:10.37,2013-04-21 05:56:00,
2013-04-21 01:57:00,34.7,26.9,30.24,NNW,347,0.0,0.0,73,0.00,,SCT,0.00,WeatherDisplay:10.37,2013-04-21 05:57:00,
2013-04-21 01:58:00,34.7,26.9,30.24,NNW,347,0.0,0.0,73,0.00,,SCT,0.00,WeatherDisplay:10.37,2013-04-21 05:58:00,
2013-04-21 02:00:00,34.7,27.3,30.24,NNW,347,0.0,0.0,74,0.00,,SCT,0.00,WeatherDisplay:10.37,2013-04-21 06:00:00,
2013-04-21 02:03:00,34.6,27.2,30.24,NNW,347,0.0,0.0,74,0.00,,SCT,0.00,WeatherDisplay:10.37,2013-04-21 06:03:00,
2013-04-21 02:04:00,34.6,27.2,30.24,NNW,347,0.0,0.0,74,0.00,,SCT,0.00,WeatherDisplay:10.37,2013-04-21 06:04:00,
2013-04-21 02:08:00,34.6,27.2,30.24,NNW,347,0.0,0.0,74,0.00,,SCT,0.00,WeatherDisplay:10.37,2013-04-21 06:08:00,
2013-04-21 02:10:00,34.4,27.0,30.24,NNW,347,0.0,0.0,74,0.00,,SCT,0.00,WeatherDisplay:10.37,2013-04-21 06:10:00,
2013-04-21 02:11:00,34.4,27.0,30.24,NNW,347,0.0,0.0,74,0.00,,SCT,0.00,WeatherDisplay:10.37,2013-04-21 06:11:00,
2013-04-21 02:16:00,34.3,26.9,30.24,NNW,347,0.0,0.0,74,0.00,,SCT,0.00,WeatherDisplay:10.37,2013-04-21 06:16:00,
2013-04-21 02:17:00,34.3,26.9,30.24,NNW,347,0.0,0.0,74,0.00,,SCT,0.00,WeatherDisplay:10.37,2013-04-21 06:17:00,
2013-04-21 02:18:00,34.3,26.9,30.24,NNW,347,0.0,0.0,74,0.00,,SCT,0.00,WeatherDisplay:10.37,2013-04-21 06:18:00,
2013-04-21 02:22:00,34.1,27.0,30.24,NNW,347,0.0,0.0,75,0.00,,SCT,0.00,WeatherDisplay:10.37,2013-04-21 06:22:00,
2013-04-21 02:24:00,34.1,27.0,30.24,NNW,347,0.0,0.0,75,0.00,,SCT,0.00,WeatherDisplay:10.37,2013-04-21 06:24:00,
2013-04-21 02:25:00,34.1,26.7,30.24,NNW,347,0.0,0.0,74,0.00,,SCT,0.00,WeatherDisplay:10.37,2013-04-21 06:25:00,
2013-04-21 02:26:00,34.1,26.7,30.24,NNW,347,0.0,0.0,74,0.00,,SCT,0.00,WeatherDisplay:10.37,2013-04-21 06:26:00,
2013-04-21 02:30:00,34.0,26.9,30.24,NNW,347,0.0,0.0,75,0.00,,SCT,0.00,WeatherDisplay:10.37,2013-04-21 06:30:00,
2013-04-21 02:32:00,34.0,26.9,30.24,NNW,347,0.0,0.0,75,0.00,,SCT,0.00,WeatherDisplay:10.37,2013-04-21 06:32:00,
2013-04-21 02:35:00,34.0,26.9,30.24,NNW,347,0.0,0.0,75,0.00,,SCT,0.00,WeatherDisplay:10.37,2013-04-21 06:35:00,
2013-04-21 02:36:00,34.0,26.9,30.24,NNW,347,0.0,0.0,75,0.00,,SCT,0.00,WeatherDisplay:10.37,2013-04-21 06:36:00,
2013-04-21 02:37:00,34.0,26.9,30.24,NNW,347,0.0,0.0,75,0.00,,SCT,0.00,WeatherDisplay:10.37,2013-04-21 06:37:00,
2013-04-21 02:38:00,34.0,26.9,30.24,NNW,347,0.0,0.0,75,0.00,,SCT,0.00,WeatherDisplay:10.37,2013-04-21 06:38:00,
2013-04-21 02:39:00,34.0,26.9,30.24,NNW,347,0.0,0.0,75,0.00,,SCT,0.00,WeatherDisplay:10.37,2013-04-21 06:39:00,
2013-04-21 02:40:00,33.8,26.7,30.24,NNW,347,0.0,0.0,75,0.00,,SCT,0.00,WeatherDisplay:10.37,2013-04-21 06:40:00,
2013-04-21 02:42:00,33.8,26.7,30.24,NNW,347,0.0,0.0,75,0.00,,SCT,0.00,WeatherDisplay:10.37,2013-04-21 06:42:00,
2013-04-21 02:46:00,33.7,26.6,30.24,NNW,347,0.0,0.0,75,0.00,,SCT,0.00,WeatherDisplay:10.37,2013-04-21 06:46:00,
2013-04-21 02:47:00,33.7,26.6,30.24,NNW,347,0.0,0.0,75,0.00,,SCT,0.00,WeatherDisplay:10.37,2013-04-21 06:47:00,
2013-04-21 02:48:00,33.7,26.6,30.24,NNW,347,0.0,0.0,75,0.00,,SCT,0.00,WeatherDisplay:10.37,2013-04-21 06:48:00,
2013-04-21 02:51:00,33.7,26.6,30.24,NNW,347,0.0,0.0,75,0.00,,SCT,0.00,WeatherDisplay:10.37,2013-04-21 06:51:00,
2013-04-21 02:52:00,33.7,26.6,30.24,NNW,347,0.0,0.0,75,0.00,,SCT,0.00,WeatherDisplay:10.37,2013-04-21 06:52:00,
2013-04-21 02:53:00,33.7,26.6,30.24,NNW,347,0.0,0.0,75,0.00,,SCT,0.00,WeatherDisplay:10.37,2013-04-21 06:53:00,
2013-04-21 02:54:00,33.7,26.6,30.24,NNW,347,0.0,0.0,75,0.00,,SCT,0.00,WeatherDisplay:10.37,2013-04-21 06:54:00,
2013-04-21 02:57:00,33.7,26.6,30.24,NNW,347,0.0,0.0,75,0.00,,SCT,0.00,WeatherDisplay:10.37,2013-04-21 06:57:00,
2013-04-21 02:58:00,33.7,26.6,30.24,NNW,347,0.0,0.0,75,0.00,,SCT,0.00,WeatherDisplay:10.37,2013-04-21 06:58:00,
2013-04-21 02:59:00,33.7,26.6,30.24,NNW,347,0.0,0.0,75,0.00,,SCT,0.00,WeatherDisplay:10.37,2013-04-21 06:59:00,
2013-04-21 03:00:00,33.7,26.6,30.24,NNW,347,0.0,0.0,75,0.00,,SCT,0.00,WeatherDisplay:10.37,2013-04-21 07:00:00,
2013-04-21 03:02:00,33.7,26.6,30.24,NNW,347,0.0,0.0,75,0.00,,SCT,0.00,WeatherDisplay:10.37,2013-04-21 07:02:00,
2013-04-21 03:03:00,33.7,26.6,30.24,NNW,347,0.0,0.0,75,0.00,,SCT,0.00,WeatherDisplay:10.37,2013-04-21 07:03:00,
2013-04-21 03:05:00,33.7,26.6,30.24,NNW,347,0.0,0.0,75,0.00,,SCT,0.00,WeatherDisplay:10.37,2013-04-21 07:05:00,
2013-04-21 03:10:00,33.5,26.7,30.24,NNW,347,0.0,0.0,76,0.00,,SCT,0.00,WeatherDisplay:10.37,2013-04-21 07:10:00,
2013-04-21 03:11:00,33.5,26.7,30.24,NNW,347,0.0,0.0,76,0.00,,SCT,0.00,WeatherDisplay:10.37,2013-04-21 07:11:00,
2013-04-21 03:12:00,33.5,26.7,30.24,NNW,347,0.0,0.0,76,0.00,,SCT,0.00,WeatherDisplay:10.37,2013-04-21 07:12:00,
2013-04-21 03:15:00,33.5,26.7,30.24,NNW,347,0.0,0.0,76,0.00,,SCT,0.00,WeatherDisplay:10.37,2013-04-21 07:15:00,
2013-04-21 03:16:00,33.5,26.4,30.24,NNW,347,0.0,0.0,75,0.00,,SCT,0.00,WeatherDisplay:10.37,2013-04-21 07:16:00,
2013-04-21 03:17:00,33.5,26.4,30.24,NNW,347,0.0,0.0,75,0.00,,SCT,0.00,WeatherDisplay:10.37,2013-04-21 07:17:00,
2013-04-21 03:20:00,33.5,26.7,30.24,NNW,347,0.0,0.0,76,0.00,,SCT,0.00,WeatherDisplay:10.37,2013-04-21 07:20:00,
2013-04-21 03:21:00,33.5,26.7,30.24,NNW,347,0.0,0.0,76,0.00,,SCT,0.00,WeatherDisplay:10.37,2013-04-21 07:21:00,
2013-04-21 03:23:00,33.5,26.7,30.24,NNW,347,0.0,0.0,76,0.00,,SCT,0.00,WeatherDisplay:10.37,2013-04-21 07:23:00,
2013-04-21 03:24:00,33.5,26.7,30.24,NNW,347,0.0,0.0,76,0.00,,SCT,0.00,WeatherDisplay:10.37,2013-04-21 07:24:00,
2013-04-21 03:26:00,33.5,26.7,30.24,NNW,347,0.0,0.0,76,0.00,,SCT,0.00,WeatherDisplay:10.37,2013-04-21 07:26:00,
2013-04-21 03:28:00,33.4,26.6,30.24,NNW,347,0.0,0.0,76,0.00,,SCT,0.00,WeatherDisplay:10.37,2013-04-21 07:28:00,
2013-04-21 03:29:00,33.4,26.6,30.25,NNW,347,0.0,0.0,76,0.00,,SCT,0.00,WeatherDisplay:10.37,2013-04-21 07:29:00,
2013-04-21 03:30:00,33.4,26.6,30.25,NNW,347,0.0,0.0,76,0.00,,SCT,0.00,WeatherDisplay:10.37,2013-04-21 07:30:00,
2013-04-21 03:33:00,33.2,26.5,30.25,NNW,347,0.0,0.0,76,0.00,,SCT,0.00,WeatherDisplay:10.37,2013-04-21 07:33:00,
2013-04-21 03:35:00,33.2,26.5,30.25,NNW,347,0.0,0.0,76,0.00,,SCT,0.00,WeatherDisplay:10.37,2013-04-21 07:35:00,
2013-04-21 03:36:00,33.2,26.5,30.25,NNW,347,0.0,0.0,76,0.00,,SCT,0.00,WeatherDisplay:10.37,2013-04-21 07:36:00,
2013-04-21 03:40:00,33.2,26.8,30.25,NNW,347,0.0,0.0,77,0.00,,SCT,0.00,WeatherDisplay:10.37,2013-04-21 07:40:00,
2013-04-21 03:41:00,33.2,26.8,30.25,NNW,347,0.0,0.0,77,0.00,,SCT,0.00,WeatherDisplay:10.37,2013-04-21 07:41:00,
2013-04-21 03:42:00,33.4,27.0,30.25,NNW,347,0.0,0.0,77,0.00,,SCT,0.00,WeatherDisplay:10.37,2013-04-21 07:42:00,
2013-04-21 03:45:00,33.5,27.1,30.25,NNW,347,0.0,0.0,77,0.00,,SCT,0.00,WeatherDisplay:10.37,2013-04-21 07:45:00,
2013-04-21 03:46:00,33.5,27.1,30.25,NNW,347,0.0,0.0,77,0.00,,SCT,0.00,WeatherDisplay:10.37,2013-04-21 07:46:00,
2013-04-21 03:49:00,33.7,27.3,30.25,NNW,347,0.0,0.0,77,0.00,,SCT,0.00,WeatherDisplay:10.37,2013-04-21 07:49:00,
2013-04-21 03:50:00,33.7,27.3,30.25,NNW,347,0.0,0.0,77,0.00,,SCT,0.00,WeatherDisplay:10.37,2013-04-21 07:50:00,
2013-04-21 03:51:00,33.7,27.3,30.25,NNW,347,0.0,0.0,77,0.00,,SCT,0.00,WeatherDisplay:10.37,2013-04-21 07:51:00,
2013-04-21 03:52:00,33.8,27.4,30.25,NNW,347,0.0,0.0,77,0.00,,SCT,0.00,WeatherDisplay:10.37,2013-04-21 07:52:00,
2013-04-21 03:56:00,33.8,27.4,30.25,NNW,347,0.0,0.0,77,0.00,,SCT,0.00,WeatherDisplay:10.37,2013-04-21 07:56:00,
2013-04-21 03:57:00,33.8,27.4,30.25,NNW,347,0.0,0.0,77,0.00,,SCT,0.00,WeatherDisplay:10.37,2013-04-21 07:57:00,
2013-04-21 03:59:00,33.8,27.4,30.25,NNW,347,0.0,0.0,77,0.00,,SCT,0.00,WeatherDisplay:10.37,2013-04-21 07:59:00,
2013-04-21 04:00:00,33.8,27.4,30.25,NNW,347,0.0,0.0,77,0.00,,SCT,0.00,WeatherDisplay:10.37,2013-04-21 08:00:00,
2013-04-21 04:02:00,34.0,27.5,30.25,NNW,347,0.0,0.0,77,0.00,,SCT,0.00,WeatherDisplay:10.37,2013-04-21 08:02:00,
2013-04-21 04:05:00,34.0,27.9,30.25,NNW,347,0.0,0.0,78,0.00,,SCT,0.00,WeatherDisplay:10.37,2013-04-21 08:05:00,
2013-04-21 04:07:00,34.0,27.9,30.25,NNW,347,0.0,0.0,78,0.00,,SCT,0.00,WeatherDisplay:10.37,2013-04-21 08:07:00,
2013-04-21 04:08:00,34.0,27.5,30.25,NNW,347,0.0,0.0,77,0.00,,SCT,0.00,WeatherDisplay:10.37,2013-04-21 08:08:00,
2013-04-21 04:10:00,34.0,27.5,30.25,NNW,347,0.0,0.0,77,0.00,,SCT,0.00,WeatherDisplay:10.37,2013-04-21 08:10:00,
2013-04-21 04:11:00,34.0,27.5,30.25,NNW,347,0.0,0.0,77,0.00,,SCT,0.00,WeatherDisplay:10.37,2013-04-21 08:11:00,
2013-04-21 04:12:00,34.0,27.5,30.25,NNW,347,0.0,0.0,77,0.00,,SCT,0.00,WeatherDisplay:10.37,2013-04-21 08:12:00,
2013-04-21 04:16:00,33.8,27.4,30.25,NNW,347,0.0,0.0,77,0.00,,SCT,0.00,WeatherDisplay:10.37,2013-04-21 08:16:00,
2013-04-21 04:17:00,33.8,27.4,30.25,NNW,347,0.0,0.0,77,0.00,,SCT,0.00,WeatherDisplay:10.37,2013-04-21 08:17:00,
2013-04-21 04:20:00,33.8,27.7,30.25,NNW,347,0.0,0.0,78,0.00,,SCT,0.00,WeatherDisplay:10.37,2013-04-21 08:20:00,
2013-04-21 04:21:00,33.8,27.7,30.25,NNW,347,0.0,0.0,78,0.00,,SCT,0.00,WeatherDisplay:10.37,2013-04-21 08:21:00,
2013-04-21 04:22:00,33.8,27.7,30.25,NNW,347,0.0,0.0,78,0.00,,SCT,0.00,WeatherDisplay:10.37,2013-04-21 08:22:00,
2013-04-21 04:27:00,34.0,27.9,30.25,North,355,0.0,0.0,78,0.00,,SCT,0.00,WeatherDisplay:10.37,2013-04-21 08:27:00,
2013-04-21 04:28:00,34.1,28.0,30.25,North,355,0.0,0.0,78,0.00,,SCT,0.00,WeatherDisplay:10.37,2013-04-21 08:28:00,
2013-04-21 04:30:00,34.1,28.0,30.25,North,355,0.0,0.0,78,0.00,,SCT,0.00,WeatherDisplay:10.37,2013-04-21 08:30:00,
2013-04-21 04:32:00,34.1,28.0,30.25,North,355,0.0,0.0,78,0.00,,SCT,0.00,WeatherDisplay:10.37,2013-04-21 08:32:00,
2013-04-21 04:33:00,34.1,28.0,30.25,North,355,0.0,0.0,78,0.00,,SCT,0.00,WeatherDisplay:10.37,2013-04-21 08:33:00,
2013-04-21 04:34:00,34.1,28.0,30.25,North,355,0.0,0.0,78,0.00,,SCT,0.00,WeatherDisplay:10.37,2013-04-21 08:34:00,
2013-04-21 04:35:00,34.1,28.0,30.25,North,355,0.0,0.0,78,0.00,,SCT,0.00,WeatherDisplay:10.37,2013-04-21 08:35:00,
2013-04-21 04:37:00,34.1,28.0,30.25,North,355,0.0,0.0,78,0.00,,SCT,0.00,WeatherDisplay:10.37,2013-04-21 08:37:00,
2013-04-21 04:39:00,34.1,28.0,30.25,North,355,0.0,0.0,78,0.00,,SCT,0.00,WeatherDisplay:10.37,2013-04-21 08:39:00,
2013-04-21 04:42:00,34.1,28.0,30.25,North,355,0.0,0.0,78,0.00,,SCT,0.00,WeatherDisplay:10.37,2013-04-21 08:42:00,
2013-04-21 04:43:00,34.1,28.0,30.25,North,355,0.0,0.0,78,0.00,,SCT,0.00,WeatherDisplay:10.37,2013-04-21 08:43:00,
2013-04-21 04:46:00,34.1,28.0,30.25,North,355,0.0,0.0,78,0.00,,SCT,0.00,WeatherDisplay:10.37,2013-04-21 08:46:00,
2013-04-21 04:47:00,34.1,28.0,30.25,North,355,0.0,0.0,78,0.00,,SCT,0.00,WeatherDisplay:10.37,2013-04-21 08:47:00,
2013-04-21 04:51:00,34.3,28.2,30.25,North,355,0.0,0.0,78,0.00,,SCT,0.00,WeatherDisplay:10.37,2013-04-21 08:51:00,
2013-04-21 04:53:00,34.3,28.2,30.25,North,355,0.0,0.0,78,0.00,,SCT,0.00,WeatherDisplay:10.37,2013-04-21 08:53:00,
2013-04-21 04:55:00,34.3,28.2,30.25,North,355,0.0,0.0,78,0.00,,SCT,0.00,WeatherDisplay:10.37,2013-04-21 08:55:00,
2013-04-21 04:56:00,34.3,28.2,30.25,North,355,0.0,0.0,78,0.00,,SCT,0.00,WeatherDisplay:10.37,2013-04-21 08:56:00,
2013-04-21 04:59:00,34.3,28.2,30.25,North,355,0.0,0.0,78,0.00,,SCT,0.00,WeatherDisplay:10.37,2013-04-21 08:59:00,
2013-04-21 05:02:00,34.4,28.2,30.25,North,355,0.0,0.0,78,0.00,,SCT,0.00,WeatherDisplay:10.37,2013-04-21 09:02:00,
2013-04-21 05:03:00,34.4,28.2,30.25,North,355,0.0,0.0,78,0.00,,SCT,0.00,WeatherDisplay:10.37,2013-04-21 09:03:00,
2013-04-21 05:04:00,34.4,28.2,30.25,North,355,0.0,0.0,78,0.00,,SCT,0.00,WeatherDisplay:10.37,2013-04-21 09:04:00,
2013-04-21 05:07:00,34.4,28.2,30.25,North,355,0.0,0.0,78,0.00,,SCT,0.00,WeatherDisplay:10.37,2013-04-21 09:07:00,
2013-04-21 05:09:00,34.4,28.2,30.25,North,355,0.0,0.0,78,0.00,,SCT,0.00,WeatherDisplay:10.37,2013-04-21 09:09:00,
2013-04-21 05:10:00,34.4,28.2,30.25,North,355,0.0,0.0,78,0.00,,SCT,0.00,WeatherDisplay:10.37,2013-04-21 09:10:00,
2013-04-21 05:12:00,34.4,28.2,30.26,North,355,0.0,0.0,78,0.00,,SCT,0.00,WeatherDisplay:10.37,2013-04-21 09:12:00,
2013-04-21 05:13:00,34.4,28.2,30.26,North,355,0.0,0.0,78,0.00,,SCT,0.00,WeatherDisplay:10.37,2013-04-21 09:13:00,
2013-04-21 05:15:00,34.6,28.4,30.25,North,355,0.0,0.0,78,0.00,,SCT,0.00,WeatherDisplay:10.37,2013-04-21 09:15:00,
2013-04-21 05:16:00,34.6,28.4,30.25,North,355,0.0,0.0,78,0.00,,SCT,0.00,WeatherDisplay:10.37,2013-04-21 09:16:00,
2013-04-21 05:18:00,34.6,28.4,30.25,North,355,0.0,0.0,78,0.00,,SCT,0.00,WeatherDisplay:10.37,2013-04-21 09:18:00,
2013-04-21 05:21:00,34.7,28.5,30.25,North,355,0.0,0.0,78,0.00,,SCT,0.00,WeatherDisplay:10.37,2013-04-21 09:21:00,
2013-04-21 05:22:00,34.7,28.5,30.25,North,355,0.0,0.0,78,0.00,,SCT,0.00,WeatherDisplay:10.37,2013-04-21 09:22:00,
2013-04-21 05:24:00,34.7,28.5,30.25,North,355,0.0,0.0,78,0.00,,SCT,0.00,WeatherDisplay:10.37,2013-04-21 09:24:00,
2013-04-21 05:25:00,34.7,28.5,30.25,North,355,0.0,0.0,78,0.00,,SCT,0.00,WeatherDisplay:10.37,2013-04-21 09:25:00,
2013-04-21 05:27:00,34.7,28.5,30.25,North,355,0.0,0.0,78,0.00,,SCT,0.00,WeatherDisplay:10.37,2013-04-21 09:27:00,
2013-04-21 05:28:00,34.7,28.5,30.25,North,355,0.0,0.0,78,0.00,,SCT,0.00,WeatherDisplay:10.37,2013-04-21 09:28:00,
2013-04-21 05:29:00,34.7,28.9,30.26,North,355,0.0,0.0,79,0.00,,SCT,0.00,WeatherDisplay:10.37,2013-04-21 09:29:00,
2013-04-21 05:30:00,34.7,28.9,30.26,North,355,0.0,0.0,79,0.00,,SCT,0.00,WeatherDisplay:10.37,2013-04-21 09:30:00,
2013-04-21 05:32:00,34.9,29.0,30.26,North,355,0.0,0.0,79,0.00,,SCT,0.00,WeatherDisplay:10.37,2013-04-21 09:32:00,
2013-04-21 05:34:00,34.9,29.0,30.25,North,355,0.0,0.0,79,0.00,,SCT,0.00,WeatherDisplay:10.37,2013-04-21 09:34:00,
2013-04-21 05:35:00,34.9,29.0,30.25,North,355,0.0,0.0,79,0.00,,SCT,0.00,WeatherDisplay:10.37,2013-04-21 09:35:00,
2013-04-21 05:37:00,34.9,29.0,30.25,North,355,0.0,0.0,79,0.00,,SCT,0.00,WeatherDisplay:10.37,2013-04-21 09:37:00,
2013-04-21 05:39:00,34.9,29.0,30.25,North,355,0.0,0.0,79,0.00,,SCT,0.00,WeatherDisplay:10.37,2013-04-21 09:39:00,
2013-04-21 05:40:00,34.9,29.0,30.25,North,355,0.0,0.0,79,0.00,,SCT,0.00,WeatherDisplay:10.37,2013-04-21 09:40:00,
2013-04-21 05:41:00,34.9,29.0,30.25,North,355,0.0,0.0,79,0.00,,SCT,0.00,WeatherDisplay:10.37,2013-04-21 09:41:00,
2013-04-21 05:43:00,34.9,29.0,30.26,North,355,0.0,0.0,79,0.00,,SCT,0.00,WeatherDisplay:10.37,2013-04-21 09:43:00,
2013-04-21 05:45:00,34.9,29.0,30.26,North,355,0.0,0.0,79,0.00,,SCT,0.00,WeatherDisplay:10.37,2013-04-21 09:45:00,
2013-04-21 05:46:00,34.9,29.0,30.26,North,355,0.0,0.0,79,0.00,,SCT,0.00,WeatherDisplay:10.37,2013-04-21 09:46:00,
2013-04-21 05:47:00,34.9,29.0,30.26,North,355,0.0,0.0,79,0.00,,SCT,0.00,WeatherDisplay:10.37,2013-04-21 09:47:00,
2013-04-21 05:48:00,34.9,29.0,30.26,North,355,0.0,0.0,79,0.00,,SCT,0.00,WeatherDisplay:10.37,2013-04-21 09:48:00,
2013-04-21 05:51:00,34.9,29.0,30.26,North,355,0.0,0.0,79,0.00,,SCT,0.00,WeatherDisplay:10.37,2013-04-21 09:51:00,
2013-04-21 05:52:00,34.9,29.0,30.26,North,355,0.0,0.0,79,0.00,,SCT,0.00,WeatherDisplay:10.37,2013-04-21 09:52:00,
2013-04-21 05:53:00,34.9,29.0,30.26,North,355,0.0,0.0,79,0.00,,SCT,0.00,WeatherDisplay:10.37,2013-04-21 09:53:00,
2013-04-21 05:55:00,34.9,29.0,30.26,North,355,0.0,0.0,79,0.00,,SCT,0.00,WeatherDisplay:10.37,2013-04-21 09:55:00,
2013-04-21 05:56:00,34.9,29.0,30.26,North,355,0.0,0.0,79,0.00,,SCT,0.00,WeatherDisplay:10.37,2013-04-21 09:56:00,
2013-04-21 05:57:00,34.9,29.0,30.26,North,355,0.0,0.0,79,0.00,,SCT,0.00,WeatherDisplay:10.37,2013-04-21 09:57:00,
2013-04-21 05:59:00,34.9,29.0,30.26,North,355,0.0,0.0,79,0.00,,SCT,0.00,WeatherDisplay:10.37,2013-04-21 09:59:00,
2013-04-21 06:00:00,35.0,29.1,30.26,North,355,0.0,0.0,79,0.00,,SCT,0.00,WeatherDisplay:10.37,2013-04-21 10:00:00,
2013-04-21 06:01:00,35.0,29.1,30.26,North,355,0.0,0.0,79,0.00,,SCT,0.00,WeatherDisplay:10.37,2013-04-21 10:01:00,
2013-04-21 06:02:00,35.0,29.1,30.26,North,355,0.0,0.0,79,0.00,,SCT,0.00,WeatherDisplay:10.37,2013-04-21 10:02:00,
2013-04-21 06:07:00,34.9,29.0,30.26,North,355,0.0,0.0,79,0.00,,SCT,0.00,WeatherDisplay:10.37,2013-04-21 10:07:00,
2013-04-21 06:09:00,34.9,29.0,30.26,North,355,0.0,0.0,79,0.00,,SCT,0.00,WeatherDisplay:10.37,2013-04-21 10:09:00,
2013-04-21 06:10:00,34.9,29.0,30.27,North,355,0.0,0.0,79,0.00,,SCT,0.00,WeatherDisplay:10.37,2013-04-21 10:10:00,
2013-04-21 06:12:00,34.9,29.0,30.27,North,355,0.0,0.0,79,0.00,,SCT,0.00,WeatherDisplay:10.37,2013-04-21 10:12:00,
2013-04-21 06:15:00,34.9,29.0,30.27,North,355,0.0,0.0,79,0.00,,SCT,0.00,WeatherDisplay:10.37,2013-04-21 10:15:00,
2013-04-21 06:17:00,34.7,28.9,30.27,North,355,0.0,0.0,79,0.00,,SCT,0.00,WeatherDisplay:10.37,2013-04-21 10:17:00,
2013-04-21 06:18:00,34.7,28.9,30.27,North,355,0.0,0.0,79,0.00,,SCT,0.00,WeatherDisplay:10.37,2013-04-21 10:18:00,
2013-04-21 06:19:00,34.7,28.9,30.27,North,355,0.0,0.0,79,0.00,CLR,SCT,0.00,WeatherDisplay:10.37,2013-04-21 10:19:00,
2013-04-21 06:22:00,34.7,28.9,30.27,North,355,0.0,0.0,79,0.00,CLR,SCT,0.00,WeatherDisplay:10.37,2013-04-21 10:22:00,
2013-04-21 06:23:00,34.7,28.9,30.27,North,355,0.0,0.0,79,0.00,CLR,SCT,0.00,WeatherDisplay:10.37,2013-04-21 10:23:00,
2013-04-21 06:26:00,34.7,28.9,30.27,North,355,0.0,0.0,79,0.00,CLR,SCT,0.00,WeatherDisplay:10.37,2013-04-21 10:26:00,
2013-04-21 06:27:00,34.7,28.9,30.27,North,355,0.0,0.0,79,0.00,CLR,SCT,0.00,WeatherDisplay:10.37,2013-04-21 10:27:00,
2013-04-21 06:28:00,34.7,28.9,30.27,North,355,0.0,0.0,79,0.00,CLR,SCT,0.00,WeatherDisplay:10.37,2013-04-21 10:28:00,
2013-04-21 06:29:00,34.7,28.9,30.27,North,355,0.0,0.0,79,0.00,CLR,SCT,0.00,WeatherDisplay:10.37,2013-04-21 10:29:00,
2013-04-21 06:33:00,34.7,28.9,30.28,North,355,0.0,0.0,79,0.00,CLR,SCT,0.00,WeatherDisplay:10.37,2013-04-21 10:33:00,
2013-04-21 06:34:00,34.7,28.9,30.28,North,355,0.0,0.0,79,0.00,CLR,SCT,0.00,WeatherDisplay:10.37,2013-04-21 10:34:00,
2013-04-21 06:36:00,34.6,28.8,30.28,North,355,0.0,0.0,79,0.00,CLR,SCT,0.00,WeatherDisplay:10.37,2013-04-21 10:36:00,
2013-04-21 06:37:00,34.6,28.8,30.28,North,355,0.0,0.0,79,0.00,CLR,SCT,0.00,WeatherDisplay:10.37,2013-04-21 10:37:00,
2013-04-21 06:39:00,34.6,28.8,30.28,North,355,0.0,0.0,79,0.00,CLR,SCT,0.00,WeatherDisplay:10.37,2013-04-21 10:39:00,
2013-04-21 06:40:00,34.6,28.8,30.28,North,355,0.0,0.0,79,0.00,CLR,SCT,0.00,WeatherDisplay:10.37,2013-04-21 10:40:00,
2013-04-21 06:41:00,34.6,28.8,30.28,North,355,0.0,0.0,79,0.00,CLR,SCT,0.00,WeatherDisplay:10.37,2013-04-21 10:41:00,
2013-04-21 06:43:00,34.6,28.8,30.28,North,355,0.0,0.0,79,0.00,CLR,SCT,0.00,WeatherDisplay:10.37,2013-04-21 10:43:00,
2013-04-21 06:46:00,34.4,28.6,30.28,North,355,0.0,0.0,79,0.00,CLR,SCT,0.00,WeatherDisplay:10.37,2013-04-21 10:46:00,
2013-04-21 06:47:00,34.4,28.6,30.28,North,355,0.0,0.0,79,0.00,CLR,SCT,0.00,WeatherDisplay:10.37,2013-04-21 10:47:00,
2013-04-21 06:48:00,34.4,28.6,30.28,North,355,0.0,0.0,79,0.00,CLR,SCT,0.00,WeatherDisplay:10.37,2013-04-21 10:48:00,
2013-04-21 06:49:00,34.4,28.6,30.28,North,355,0.0,0.0,79,0.00,CLR,SCT,0.00,WeatherDisplay:10.37,2013-04-21 10:49:00,
2013-04-21 06:51:00,34.4,28.6,30.28,North,355,0.0,0.0,79,0.00,CLR,SCT,0.00,WeatherDisplay:10.37,2013-04-21 10:51:00,
2013-04-21 06:52:00,34.4,28.6,30.28,North,355,0.0,0.0,79,0.00,CLR,SCT,0.00,WeatherDisplay:10.37,2013-04-21 10:52:00,
2013-04-21 06:54:00,34.3,28.5,30.29,North,360,0.0,0.0,79,0.00,CLR,SCT,0.00,WeatherDisplay:10.37,2013-04-21 10:54:00,
2013-04-21 06:55:00,34.3,28.5,30.29,North,360,0.0,0.0,79,0.00,CLR,SCT,0.00,WeatherDisplay:10.37,2013-04-21 10:55:00,
2013-04-21 06:57:00,34.3,28.5,30.29,North,360,0.0,0.0,79,0.00,CLR,SCT,0.00,WeatherDisplay:10.37,2013-04-21 10:57:00,
2013-04-21 06:59:00,34.1,28.3,30.29,NNE,26,0.0,0.0,79,0.00,CLR,SCT,0.00,WeatherDisplay:10.37,2013-04-21 10:59:00,
2013-04-21 07:00:00,34.1,28.3,30.29,NNE,26,0.0,0.0,79,0.00,CLR,SCT,0.00,WeatherDisplay:10.37,2013-04-21 11:00:00,
2013-04-21 07:02:00,34.1,28.3,30.30,NNE,26,0.0,0.0,79,0.00,CLR,SCT,0.00,WeatherDisplay:10.37,2013-04-21 11:02:00,
2013-04-21 07:05:00,34.1,28.3,30.29,NNE,26,0.0,0.0,79,0.00,CLR,SCT,0.00,WeatherDisplay:10.37,2013-04-21 11:05:00,
2013-04-21 07:07:00,34.1,28.3,30.30,NNE,26,0.0,0.0,79,0.00,CLR,SCT,0.00,WeatherDisplay:10.37,2013-04-21 11:07:00,
2013-04-21 07:09:00,34.1,28.6,30.30,NNE,26,0.0,0.0,80,0.00,CLR,SCT,0.00,WeatherDisplay:10.37,2013-04-21 11:09:00,
2013-04-21 07:11:00,34.1,28.6,30.30,NNE,26,0.0,0.0,80,0.00,CLR,SCT,0.00,WeatherDisplay:10.37,2013-04-21 11:11:00,
2013-04-21 07:12:00,34.1,28.6,30.30,NNE,26,0.0,0.0,80,0.00,CLR,SCT,0.00,WeatherDisplay:10.37,2013-04-21 11:12:00,
2013-04-21 07:13:00,34.3,28.8,30.30,NNE,26,0.0,0.0,80,0.00,CLR,SCT,0.00,WeatherDisplay:10.37,2013-04-21 11:13:00,
2013-04-21 07:14:00,34.3,28.8,30.30,NNE,26,0.0,0.0,80,0.00,CLR,SCT,0.00,WeatherDisplay:10.37,2013-04-21 11:14:00,
2013-04-21 07:19:00,34.4,28.9,30.31,NE,42,0.0,0.0,80,0.00,CLR,SCT,0.00,WeatherDisplay:10.37,2013-04-21 11:19:00,
2013-04-21 07:21:00,34.4,28.9,30.31,NE,42,0.0,0.0,80,0.00,CLR,SCT,0.00,WeatherDisplay:10.37,2013-04-21 11:21:00,
2013-04-21 07:22:00,34.6,29.1,30.30,NE,42,0.0,0.0,80,0.00,CLR,SCT,0.00,WeatherDisplay:10.37,2013-04-21 11:22:00,
2013-04-21 07:26:00,34.7,29.2,30.30,NE,42,0.0,0.0,80,0.00,CLR,SCT,0.00,WeatherDisplay:10.37,2013-04-21 11:26:00,
2013-04-21 07:27:00,34.7,29.2,30.30,NE,42,0.0,0.0,80,0.00,CLR,SCT,0.00,WeatherDisplay:10.37,2013-04-21 11:27:00,
2013-04-21 07:28:00,34.7,29.2,30.30,NE,42,0.0,0.0,80,0.00,CLR,SCT,0.00,WeatherDisplay:10.37,2013-04-21 11:28:00,
2013-04-21 07:30:00,34.9,29.4,30.30,NE,53,0.0,0.0,80,0.00,CLR,SCT,0.00,WeatherDisplay:10.37,2013-04-21 11:30:00,
2013-04-21 07:32:00,34.9,29.4,30.30,East,84,0.0,0.0,80,0.00,CLR,SCT,0.00,WeatherDisplay:10.37,2013-04-21 11:32:00,
2013-04-21 07:33:00,35.0,29.5,30.30,East,84,0.0,0.0,80,0.00,CLR,SCT,0.00,WeatherDisplay:10.37,2013-04-21 11:33:00,
2013-04-21 07:36:00,35.2,29.6,30.30,East,84,0.0,0.0,80,0.00,CLR,SCT,0.00,WeatherDisplay:10.37,2013-04-21 11:36:00,
2013-04-21 07:38:00,35.3,30.1,30.30,East,80,0.0,0.0,81,0.00,CLR,SCT,0.00,WeatherDisplay:10.37,2013-04-21 11:38:00,
2013-04-21 07:41:00,35.5,30.2,30.31,East,80,0.0,0.0,81,0.00,CLR,SCT,0.00,WeatherDisplay:10.37,2013-04-21 11:41:00,
2013-04-21 07:42:00,35.6,30.3,30.31,East,80,0.0,0.0,81,0.00,CLR,SCT,0.00,WeatherDisplay:10.37,2013-04-21 11:42:00,
2013-04-21 07:44:00,35.8,30.5,30.31,East,80,0.0,0.0,81,0.00,CLR,SCT,0.00,WeatherDisplay:10.37,2013-04-21 11:44:00,
2013-04-21 07:45:00,35.9,30.3,30.31,East,81,0.0,0.0,80,0.00,CLR,SCT,0.00,WeatherDisplay:10.37,2013-04-21 11:45:00,
2013-04-21 07:46:00,35.9,30.6,30.31,ENE,75,0.0,0.0,81,0.00,CLR,SCT,0.00,WeatherDisplay:10.37,2013-04-21 11:46:00,
2013-04-21 07:49:00,36.2,30.9,30.32,ENE,75,0.0,0.0,81,0.00,CLR,SCT,0.00,WeatherDisplay:10.37,2013-04-21 11:49:00,
2013-04-21 07:51:00,36.3,31.0,30.32,ENE,75,0.0,0.0,81,0.00,CLR,SCT,0.00,WeatherDisplay:10.37,2013-04-21 11:51:00,
2013-04-21 07:52:00,36.5,31.2,30.31,ENE,75,0.0,0.0,81,0.00,CLR,SCT,0.00,WeatherDisplay:10.37,2013-04-21 11:52:00,
2013-04-21 07:55:00,36.8,31.5,30.31,ENE,75,0.0,0.0,81,0.00,CLR,SCT,0.00,WeatherDisplay:10.37,2013-04-21 11:55:00,
2013-04-21 07:57:00,37.0,31.7,30.31,ENE,75,0.0,0.0,81,0.00,CLR,SCT,0.00,WeatherDisplay:10.37,2013-04-21 11:57:00,
2013-04-21 07:58:00,37.2,31.9,30.31,ENE,75,0.0,0.0,81,0.00,CLR,SCT,0.00,WeatherDisplay:10.37,2013-04-21 11:58:00,
2013-04-21 07:59:00,37.3,32.0,30.31,ENE,75,0.0,0.0,81,0.00,CLR,SCT,0.00,WeatherDisplay:10.37,2013-04-21 11:59:00,
2013-04-21 08:02:00,37.8,32.5,30.31,ENE,75,0.0,0.0,81,0.00,CLR,SCT,0.00,WeatherDisplay:10.37,2013-04-21 12:02:00,
2013-04-21 08:03:00,37.9,32.6,30.31,ENE,75,0.0,0.0,81,0.00,CLR,SCT,0.00,WeatherDisplay:10.37,2013-04-21 12:03:00,
2013-04-21 08:04:00,38.0,32.7,30.31,ENE,75,0.0,0.0,81,0.00,CLR,SCT,0.00,WeatherDisplay:10.37,2013-04-21 12:04:00,
2013-04-21 08:05:00,38.2,32.9,30.31,ENE,75,0.0,0.0,81,0.00,CLR,SCT,0.00,WeatherDisplay:10.37,2013-04-21 12:05:00,
2013-04-21 08:07:00,38.5,33.2,30.32,ENE,75,0.0,0.0,81,0.00,CLR,SCT,0.00,WeatherDisplay:10.37,2013-04-21 12:07:00,
2013-04-21 08:08:00,38.6,33.3,30.32,ENE,75,0.0,0.0,81,0.00,CLR,SCT,0.00,WeatherDisplay:10.37,2013-04-21 12:08:00,
2013-04-21 08:09:00,38.8,33.5,30.32,ENE,75,0.0,0.0,81,0.00,CLR,SCT,0.00,WeatherDisplay:10.37,2013-04-21 12:09:00,
2013-04-21 08:10:00,38.9,33.6,30.32,ENE,75,0.0,0.0,81,0.00,CLR,SCT,0.00,WeatherDisplay:10.37,2013-04-21 12:10:00,
2013-04-21 08:12:00,39.2,33.9,30.32,ENE,75,0.0,0.0,81,0.00,CLR,SCT,0.00,WeatherDisplay:10.37,2013-04-21 12:12:00,
2013-04-21 08:14:00,39.5,34.2,30.32,ENE,75,0.0,0.0,81,0.00,CLR,SCT,0.00,WeatherDisplay:10.37,2013-04-21 12:14:00,
2013-04-21 08:16:00,39.8,34.4,30.32,North,5,0.0,0.0,81,0.00,CLR,SCT,0.00,WeatherDisplay:10.37,2013-04-21 12:16:00,
2013-04-21 08:17:00,39.9,34.5,30.32,North,5,0.0,0.0,81,0.00,CLR,SCT,0.00,WeatherDisplay:10.37,2013-04-21 12:17:00,
2013-04-21 08:19:00,40.3,34.9,30.32,North,5,0.0,0.0,81,0.00,CLR,SCT,0.00,WeatherDisplay:10.37,2013-04-21 12:19:00,
2013-04-21 08:21:00,40.6,35.2,30.32,North,5,0.0,0.0,81,0.00,CLR,SCT,0.00,WeatherDisplay:10.37,2013-04-21 12:21:00,
2013-04-21 08:22:00,40.8,35.4,30.32,North,5,0.0,0.0,81,0.00,CLR,SCT,0.00,WeatherDisplay:10.37,2013-04-21 12:22:00,
2013-04-21 08:24:00,41.1,35.7,30.32,North,5,0.0,0.0,81,0.00,CLR,SCT,0.00,WeatherDisplay:10.37,2013-04-21 12:24:00,
2013-04-21 08:25:00,41.2,35.5,30.32,North,5,0.0,0.0,80,0.00,CLR,SCT,0.00,WeatherDisplay:10.37,2013-04-21 12:25:00,
2013-04-21 08:26:00,41.5,36.1,30.32,North,5,0.0,0.0,81,0.00,CLR,SCT,0.00,WeatherDisplay:10.37,2013-04-21 12:26:00,
2013-04-21 08:28:00,41.8,36.4,30.32,North,5,0.0,0.0,81,0.00,CLR,SCT,0.00,WeatherDisplay:10.37,2013-04-21 12:28:00,
2013-04-21 08:30:00,42.2,36.5,30.32,North,5,0.0,0.0,80,0.00,CLR,SCT,0.00,WeatherDisplay:10.37,2013-04-21 12:30:00,
2013-04-21 08:31:00,42.3,36.6,30.32,North,5,0.0,0.0,80,0.00,CLR,SCT,0.00,WeatherDisplay:10.37,2013-04-21 12:31:00,
2013-04-21 08:35:00,42.6,36.9,30.32,North,9,0.0,0.0,80,0.00,CLR,SCT,0.00,WeatherDisplay:10.37,2013-04-21 12:35:00,
2013-04-21 08:36:00,42.8,36.7,30.32,NNE,30,0.0,0.0,79,0.00,CLR,SCT,0.00,WeatherDisplay:10.37,2013-04-21 12:36:00,
2013-04-21 08:37:00,42.8,36.7,30.32,NNE,30,0.0,0.0,79,0.00,CLR,SCT,0.00,WeatherDisplay:10.37,2013-04-21 12:37:00,
2013-04-21 08:39:00,42.9,36.8,30.32,NE,34,0.0,0.0,79,0.00,CLR,SCT,0.00,WeatherDisplay:10.37,2013-04-21 12:39:00,
2013-04-21 08:40:00,43.1,37.0,30.32,NE,34,0.0,0.0,79,0.00,CLR,SCT,0.00,WeatherDisplay:10.37,2013-04-21 12:40:00,
2013-04-21 08:41:00,43.2,37.1,30.32,NE,34,0.0,0.0,79,0.00,CLR,SCT,0.00,WeatherDisplay:10.37,2013-04-21 12:41:00,
2013-04-21 08:44:00,43.3,37.2,30.32,NE,34,0.0,0.0,79,0.00,CLR,SCT,0.00,WeatherDisplay:10.37,2013-04-21 12:44:00,
2013-04-21 08:45:00,43.5,37.4,30.31,NE,34,0.0,0.0,79,0.00,CLR,SCT,0.00,WeatherDisplay:10.37,2013-04-21 12:45:00,
2013-04-21 08:46:00,43.6,37.5,30.31,NE,34,0.0,0.0,79,0.00,CLR,SCT,0.00,WeatherDisplay:10.37,2013-04-21 12:46:00,
2013-04-21 08:49:00,43.8,37.4,30.32,NNE,26,0.0,0.0,78,0.00,CLR,SCT,0.00,WeatherDisplay:10.37,2013-04-21 12:49:00,
2013-04-21 08:51:00,43.8,37.4,30.32,East,81,0.0,0.0,78,0.00,CLR,SCT,0.00,WeatherDisplay:10.37,2013-04-21 12:51:00,
2013-04-21 08:52:00,43.8,37.4,30.32,East,81,0.0,0.0,78,0.00,CLR,SCT,0.00,WeatherDisplay:10.37,2013-04-21 12:52:00,
2013-04-21 08:53:00,43.8,37.4,30.32,East,81,0.0,0.0,78,0.00,CLR,SCT,0.00,WeatherDisplay:10.37,2013-04-21 12:53:00,
2013-04-21 08:54:00,43.8,37.4,30.32,East,81,0.0,0.0,78,0.00,CLR,SCT,0.00,WeatherDisplay:10.37,2013-04-21 12:54:00,
2013-04-21 08:57:00,43.8,37.4,30.32,SE,144,0.0,0.0,78,0.00,CLR,SCT,0.00,WeatherDisplay:10.37,2013-04-21 12:57:00,
2013-04-21 08:59:00,43.9,37.2,30.32,SE,144,0.0,0.0,77,0.00,CLR,SCT,0.00,WeatherDisplay:10.37,2013-04-21 12:59:00,
2013-04-21 09:00:00,43.9,37.2,30.32,SE,144,0.0,0.0,77,0.00,CLR,SCT,0.00,WeatherDisplay:10.37,2013-04-21 13:00:00,
2013-04-21 09:04:00,44.1,37.7,30.32,SE,144,0.0,0.0,78,0.00,CLR,SCT,0.00,WeatherDisplay:10.37,2013-04-21 13:04:00,
2013-04-21 09:05:00,44.2,37.8,30.32,SE,144,0.0,0.0,78,0.00,CLR,SCT,0.00,WeatherDisplay:10.37,2013-04-21 13:05:00,
2013-04-21 09:06:00,44.2,37.8,30.33,SE,144,0.0,0.0,78,0.00,CLR,SCT,0.00,WeatherDisplay:10.37,2013-04-21 13:06:00,
2013-04-21 09:07:00,44.3,37.9,30.32,SE,144,0.0,0.0,78,0.00,CLR,SCT,0.00,WeatherDisplay:10.37,2013-04-21 13:07:00,
2013-04-21 09:09:00,44.6,37.8,30.32,SE,144,0.0,0.0,77,0.00,CLR,SCT,0.00,WeatherDisplay:10.37,2013-04-21 13:09:00,
2013-04-21 09:12:00,44.9,38.1,30.32,SE,144,0.0,0.0,77,0.00,CLR,SCT,0.00,WeatherDisplay:10.37,2013-04-21 13:12:00,
2013-04-21 09:14:00,45.1,38.3,30.32,SE,144,0.0,0.0,77,0.00,CLR,SCT,0.00,WeatherDisplay:10.37,2013-04-21 13:14:00,
2013-04-21 09:15:00,45.2,38.4,30.32,SE,144,0.0,0.0,77,0.00,CLR,SCT,0.00,WeatherDisplay:10.37,2013-04-21 13:15:00,
2013-04-21 09:16:00,45.4,38.6,30.32,SE,144,0.0,0.0,77,0.00,CLR,SCT,0.00,WeatherDisplay:10.37,2013-04-21 13:16:00,
2013-04-21 09:17:00,45.4,38.6,30.32,SE,144,0.0,0.0,77,0.00,CLR,SCT,0.00,WeatherDisplay:10.37,2013-04-21 13:17:00,
2013-04-21 09:19:00,45.5,38.7,30.32,SE,128,0.0,0.0,77,0.00,CLR,SCT,0.00,WeatherDisplay:10.37,2013-04-21 13:19:00,
2013-04-21 09:21:00,45.7,38.9,30.32,SE,128,0.0,0.0,77,0.00,CLR,SCT,0.00,WeatherDisplay:10.37,2013-04-21 13:21:00,
2013-04-21 09:22:00,45.8,39.0,30.32,SE,128,0.0,0.0,77,0.00,CLR,SCT,0.00,WeatherDisplay:10.37,2013-04-21 13:22:00,
2013-04-21 09:24:00,46.0,39.2,30.32,SE,128,0.0,0.0,77,0.00,CLR,SCT,0.00,WeatherDisplay:10.37,2013-04-21 13:24:00,
2013-04-21 09:25:00,46.0,39.2,30.32,SE,128,0.0,0.0,77,0.00,CLR,SCT,0.00,WeatherDisplay:10.37,2013-04-21 13:25:00,
2013-04-21 09:27:00,46.1,39.3,30.32,SE,128,0.0,0.0,77,0.00,CLR,SCT,0.00,WeatherDisplay:10.37,2013-04-21 13:27:00,
2013-04-21 09:30:00,46.2,39.4,30.32,SE,128,0.0,0.0,77,0.00,CLR,SCT,0.00,WeatherDisplay:10.37,2013-04-21 13:30:00,
2013-04-21 09:31:00,46.2,39.4,30.32,SE,128,0.0,0.0,77,0.00,CLR,SCT,0.00,WeatherDisplay:10.37,2013-04-21 13:31:00,
2013-04-21 09:34:00,46.4,39.2,30.32,SE,128,0.0,0.0,76,0.00,CLR,SCT,0.00,WeatherDisplay:10.37,2013-04-21 13:34:00,
2013-04-21 09:35:00,46.5,39.3,30.32,SE,129,0.0,0.0,76,0.00,CLR,SCT,0.00,WeatherDisplay:10.37,2013-04-21 13:35:00,
2013-04-21 09:37:00,46.7,39.5,30.32,SSE,149,0.0,0.0,76,0.00,CLR,SCT,0.00,WeatherDisplay:10.37,2013-04-21 13:37:00,
2013-04-21 09:40:00,46.8,40.0,30.32,SSE,149,0.0,0.0,77,0.00,CLR,SCT,0.00,WeatherDisplay:10.37,2013-04-21 13:40:00,
2013-04-21 09:42:00,47.1,39.9,30.32,SSE,149,0.0,0.0,76,0.00,CLR,SCT,0.00,WeatherDisplay:10.37,2013-04-21 13:42:00,
2013-04-21 09:44:00,47.4,40.2,30.32,SSE,148,0.0,0.0,76,0.00,CLR,SCT,0.00,WeatherDisplay:10.37,2013-04-21 13:44:00,
2013-04-21 09:45:00,47.4,40.2,30.32,SSE,149,0.0,0.0,76,0.00,CLR,SCT,0.00,WeatherDisplay:10.37,2013-04-21 13:45:00,
2013-04-21 09:47:00,47.6,40.4,30.32,SSE,148,0.0,0.0,76,0.00,CLR,SCT,0.00,WeatherDisplay:10.37,2013-04-21 13:47:00,
2013-04-21 09:49:00,47.7,40.5,30.32,SSE,149,0.0,0.0,76,0.00,CLR,SCT,0.00,WeatherDisplay:10.37,2013-04-21 13:49:00,
2013-04-21 09:50:00,47.7,40.5,30.32,SSE,149,0.0,0.0,76,0.00,CLR,SCT,0.00,WeatherDisplay:10.37,2013-04-21 13:50:00,
2013-04-21 09:54:00,48.2,41.0,30.32,SSW,201,0.0,0.0,76,0.00,CLR,SCT,0.00,WeatherDisplay:10.37,2013-04-21 13:54:00,
2013-04-21 09:55:00,48.2,41.0,30.32,SSW,201,0.0,0.0,76,0.00,CLR,SCT,0.00,WeatherDisplay:10.37,2013-04-21 13:55:00,
2013-04-21 09:56:00,48.3,41.1,30.32,SSW,201,0.0,0.0,76,0.00,CLR,SCT,0.00,WeatherDisplay:10.37,2013-04-21 13:56:00,
2013-04-21 09:57:00,48.5,41.3,30.32,SSW,201,0.0,0.0,76,0.00,CLR,SCT,0.00,WeatherDisplay:10.37,2013-04-21 13:57:00,
2013-04-21 09:58:00,48.5,41.3,30.32,SSW,201,0.0,0.0,76,0.00,CLR,SCT,0.00,WeatherDisplay:10.37,2013-04-21 13:58:00,
2013-04-21 10:01:00,48.8,41.6,30.32,SSW,201,0.0,0.0,76,0.00,CLR,SCT,0.00,WeatherDisplay:10.37,2013-04-21 14:01:00,
2013-04-21 10:02:00,48.9,41.7,30.32,SSW,201,0.0,0.0,76,0.00,CLR,SCT,0.00,WeatherDisplay:10.37,2013-04-21 14:02:00,
2013-04-21 10:03:00,48.9,41.7,30.32,SSW,201,0.0,0.0,76,0.00,CLR,SCT,0.00,WeatherDisplay:10.37,2013-04-21 14:03:00,
2013-04-21 10:04:00,49.1,41.9,30.32,SSW,201,0.0,0.0,76,0.00,CLR,SCT,0.00,WeatherDisplay:10.37,2013-04-21 14:04:00,
2013-04-21 10:06:00,49.4,42.1,30.32,SSW,201,0.0,0.0,76,0.00,CLR,SCT,0.00,WeatherDisplay:10.37,2013-04-21 14:06:00,
2013-04-21 10:08:00,49.6,42.3,30.32,SSW,201,0.0,0.0,76,0.00,CLR,SCT,0.00,WeatherDisplay:10.37,2013-04-21 14:08:00,
2013-04-21 10:11:00,49.9,42.3,30.32,SSW,201,0.0,0.0,75,0.00,CLR,SCT,0.00,WeatherDisplay:10.37,2013-04-21 14:11:00,
2013-04-21 10:12:00,50.1,42.5,30.32,SSW,201,0.0,0.0,75,0.00,CLR,SCT,0.00,WeatherDisplay:10.37,2013-04-21 14:12:00,
2013-04-21 10:14:00,50.2,42.6,30.32,SSW,201,0.0,0.0,75,0.00,CLR,SCT,0.00,WeatherDisplay:10.37,2013-04-21 14:14:00,
2013-04-21 10:15:00,50.2,42.6,30.33,SSW,201,0.0,0.0,75,0.00,CLR,SCT,0.00,WeatherDisplay:10.37,2013-04-21 14:15:00,
2013-04-21 10:17:00,50.4,42.8,30.33,SW,214,0.0,0.0,75,0.00,CLR,SCT,0.00,WeatherDisplay:10.37,2013-04-21 14:17:00,
2013-04-21 10:18:00,50.5,42.9,30.32,SW,214,0.0,0.0,75,0.00,CLR,SCT,0.00,WeatherDisplay:10.37,2013-04-21 14:18:00,
2013-04-21 10:20:00,50.5,42.5,30.32,SW,214,0.0,0.0,74,0.00,CLR,SCT,0.00,WeatherDisplay:10.37,2013-04-21 14:20:00,
2013-04-21 10:25:00,51.0,43.0,30.32,SW,214,0.0,0.0,74,0.00,CLR,SCT,0.00,WeatherDisplay:10.37,2013-04-21 14:25:00,
2013-04-21 10:26:00,51.0,42.6,30.32,SW,214,0.0,0.0,73,0.00,CLR,SCT,0.00,WeatherDisplay:10.37,2013-04-21 14:26:00,
2013-04-21 10:27:00,51.1,43.1,30.32,SW,214,0.0,0.0,74,0.00,CLR,SCT,0.00,WeatherDisplay:10.37,2013-04-21 14:27:00,
2013-04-21 10:29:00,51.1,42.7,30.32,SSW,209,0.0,0.0,73,0.00,CLR,SCT,0.00,WeatherDisplay:10.37,2013-04-21 14:29:00,
2013-04-21 10:30:00,51.3,42.9,30.32,SSW,209,0.0,0.0,73,0.00,CLR,SCT,0.00,WeatherDisplay:10.37,2013-04-21 14:30:00,
2013-04-21 10:31:00,51.3,42.9,30.32,SSW,209,0.0,0.0,73,0.00,CLR,SCT,0.00,WeatherDisplay:10.37,2013-04-21 14:31:00,
2013-04-21 10:33:00,51.4,43.4,30.32,SSW,206,3.5,3.5,74,0.00,CLR,SCT,0.00,WeatherDisplay:10.37,2013-04-21 14:33:00,
2013-04-21 10:35:00,51.6,43.2,30.32,SSW,206,2.3,2.3,73,0.00,CLR,SCT,0.00,WeatherDisplay:10.37,2013-04-21 14:35:00,
2013-04-21 10:36:00,51.6,43.2,30.32,SSW,206,2.3,2.3,73,0.00,CLR,SCT,0.00,WeatherDisplay:10.37,2013-04-21 14:36:00,
2013-04-21 10:38:00,51.7,43.3,30.32,SSW,206,1.1,1.1,73,0.00,CLR,SCT,0.00,WeatherDisplay:10.37,2013-04-21 14:38:00,
2013-04-21 10:39:00,51.7,43.3,30.32,SSW,206,3.5,3.5,73,0.00,CLR,SCT,0.00,WeatherDisplay:10.37,2013-04-21 14:39:00,
2013-04-21 10:40:00,51.9,43.5,30.32,SSW,206,4.0,4.0,73,0.00,CLR,SCT,0.00,WeatherDisplay:10.37,2013-04-21 14:40:00,
2013-04-21 10:45:00,52.2,43.4,30.32,SSW,206,2.3,2.3,72,0.00,CLR,SCT,0.00,WeatherDisplay:10.37,2013-04-21 14:45:00,
2013-04-21 10:46:00,52.3,43.5,30.31,SSW,206,3.5,3.5,72,0.00,CLR,SCT,0.00,WeatherDisplay:10.37,2013-04-21 14:46:00,
2013-04-21 10:49:00,52.5,43.7,30.32,SSW,206,0.0,0.0,72,0.00,CLR,SCT,0.00,WeatherDisplay:10.37,2013-04-21 14:49:00,
2013-04-21 10:50:00,52.5,43.7,30.32,SSW,206,0.0,0.0,72,0.00,CLR,SCT,0.00,WeatherDisplay:10.37,2013-04-21 14:50:00,
2013-04-21 10:52:00,52.8,44.0,30.32,SSW,206,2.3,2.3,72,0.00,CLR,SCT,0.00,WeatherDisplay:10.37,2013-04-21 14:52:00,
2013-04-21 10:53:00,52.8,43.7,30.32,SSW,206,3.5,3.5,71,0.00,CLR,SCT,0.00,WeatherDisplay:10.37,2013-04-21 14:53:00,
2013-04-21 10:55:00,52.9,43.7,30.32,SSW,206,3.5,3.5,71,0.00,CLR,SCT,0.00,WeatherDisplay:10.37,2013-04-21 14:55:00,
2013-04-21 10:57:00,53.1,43.9,30.31,SSW,206,3.5,3.5,71,0.00,CLR,SCT,0.00,WeatherDisplay:10.37,2013-04-21 14:57:00,
2013-04-21 10:58:00,53.1,43.9,30.31,SSW,206,3.5,3.5,71,0.00,CLR,SCT,0.00,WeatherDisplay:10.37,2013-04-21 14:58:00,
2013-04-21 10:59:00,53.2,44.0,30.32,SSW,206,0.0,0.0,71,0.00,CLR,SCT,0.00,WeatherDisplay:10.37,2013-04-21 14:59:00,
2013-04-21 11:02:00,53.3,43.8,30.32,SSW,206,0.0,0.0,70,0.00,CLR,SCT,0.00,WeatherDisplay:10.37,2013-04-21 15:02:00,
2013-04-21 11:03:00,53.3,43.8,30.32,SSW,206,0.0,0.0,70,0.00,CLR,SCT,0.00,WeatherDisplay:10.37,2013-04-21 15:03:00,
2013-04-21 11:04:00,53.5,44.0,30.32,SW,214,0.0,0.0,70,0.00,CLR,SCT,0.00,WeatherDisplay:10.37,2013-04-21 15:04:00,
2013-04-21 11:08:00,53.6,44.0,30.32,SW,221,3.5,3.5,70,0.00,CLR,SCT,0.00,WeatherDisplay:10.37,2013-04-21 15:08:00,
2013-04-21 11:09:00,53.8,43.9,30.32,SW,221,1.1,1.1,69,0.00,CLR,SCT,0.00,WeatherDisplay:10.37,2013-04-21 15:09:00,
2013-04-21 11:10:00,53.8,44.2,30.33,SW,217,3.0,3.0,70,0.00,CLR,SCT,0.00,WeatherDisplay:10.37,2013-04-21 15:10:00,
2013-04-21 11:11:00,53.9,44.0,30.33,SW,219,3.5,3.5,69,0.00,CLR,SCT,0.00,WeatherDisplay:10.37,2013-04-21 15:11:00,
2013-04-21 11:15:00,54.1,43.8,30.32,SW,219,2.3,2.3,68,0.00,CLR,SCT,0.00,WeatherDisplay:10.37,2013-04-21 15:15:00,
2013-04-21 11:16:00,54.1,44.2,30.32,SW,219,0.0,0.0,69,0.00,CLR,SCT,0.00,WeatherDisplay:10.37,2013-04-21 15:16:00,
2013-04-21 11:19:00,54.2,43.9,30.32,SW,218,0.0,0.0,68,0.00,CLR,SCT,0.00,WeatherDisplay:10.37,2013-04-21 15:19:00,
2013-04-21 11:20:00,54.2,43.9,30.32,SW,218,0.0,0.0,68,0.00,CLR,SCT,0.00,WeatherDisplay:10.37,2013-04-21 15:20:00,
2013-04-21 11:23:00,54.4,44.1,30.33,WSW,248,5.8,5.8,68,0.00,CLR,SCT,0.00,WeatherDisplay:10.37,2013-04-21 15:23:00,
2013-04-21 11:25:00,54.4,43.7,30.33,WSW,248,4.6,4.6,67,0.00,CLR,SCT,0.00,WeatherDisplay:10.37,2013-04-21 15:25:00,
2013-04-21 11:27:00,54.4,43.7,30.32,WSW,249,3.5,3.5,67,0.00,CLR,SCT,0.00,WeatherDisplay:10.37,2013-04-21 15:27:00,
2013-04-21 11:28:00,54.5,43.8,30.32,WSW,248,6.0,6.0,67,0.00,CLR,SCT,0.00,WeatherDisplay:10.37,2013-04-21 15:28:00,
2013-04-21 11:29:00,54.5,43.8,30.32,WSW,252,5.8,5.8,67,0.00,CLR,SCT,0.00,WeatherDisplay:10.37,2013-04-21 15:29:00,
2013-04-21 11:30:00,54.5,43.8,30.32,WSW,254,6.0,6.0,67,0.00,CLR,SCT,0.00,WeatherDisplay:10.37,2013-04-21 15:30:00,
2013-04-21 11:32:00,54.5,43.8,30.32,WSW,255,5.8,5.8,67,0.00,CLR,SCT,0.00,WeatherDisplay:10.37,2013-04-21 15:32:00,
2013-04-21 11:35:00,54.7,43.6,30.32,WSW,251,5.8,5.8,66,0.00,CLR,SCT,0.00,WeatherDisplay:10.37,2013-04-21 15:35:00,
2013-04-21 11:37:00,54.7,43.2,30.32,WSW,251,3.5,3.5,65,0.00,CLR,SCT,0.00,WeatherDisplay:10.37,2013-04-21 15:37:00,
2013-04-21 11:38:00,54.7,43.2,30.32,WSW,251,2.3,2.3,65,0.00,CLR,SCT,0.00,WeatherDisplay:10.37,2013-04-21 15:38:00,
2013-04-21 11:41:00,54.7,43.2,30.32,WSW,251,3.5,3.5,65,0.00,CLR,SCT,0.00,WeatherDisplay:10.37,2013-04-21 15:41:00,
2013-04-21 11:42:00,54.8,43.3,30.32,WSW,253,6.0,6.0,65,0.00,CLR,SCT,0.00,WeatherDisplay:10.37,2013-04-21 15:42:00,
2013-04-21 11:43:00,54.8,42.9,30.32,West,260,5.8,5.8,64,0.00,CLR,SCT,0.00,WeatherDisplay:10.37,2013-04-21 15:43:00,
2013-04-21 11:44:00,54.8,42.0,30.32,West,261,3.5,3.5,62,0.00,CLR,SCT,0.00,WeatherDisplay:10.37,2013-04-21 15:44:00,
2013-04-21 11:46:00,54.8,41.6,30.32,West,259,2.3,2.3,61,0.00,CLR,SCT,0.00,WeatherDisplay:10.37,2013-04-21 15:46:00,
2013-04-21 11:48:00,54.8,42.0,30.31,West,277,3.5,3.5,62,0.00,CLR,SCT,0.00,WeatherDisplay:10.37,2013-04-21 15:48:00,
2013-04-21 11:49:00,55.0,42.2,30.31,WNW,282,3.5,3.5,62,0.00,CLR,SCT,0.00,WeatherDisplay:10.37,2013-04-21 15:49:00,
2013-04-21 11:51:00,55.1,42.7,30.31,WNW,282,1.1,0.0,63,0.00,CLR,SCT,0.00,WeatherDisplay:10.37,2013-04-21 15:51:00,
2013-04-21 11:52:00,55.3,42.9,30.31,ENE,57,3.5,3.5,63,0.00,CLR,SCT,0.00,WeatherDisplay:10.37,2013-04-21 15:52:00,
2013-04-21 11:54:00,55.4,42.6,30.31,ENE,64,3.0,3.0,62,0.00,CLR,SCT,0.00,WeatherDisplay:10.37,2013-04-21 15:54:00,
2013-04-21 11:57:00,55.7,42.5,30.31,ENE,68,5.8,5.8,61,0.00,CLR,SCT,0.00,WeatherDisplay:10.37,2013-04-21 15:57:00,
2013-04-21 11:59:00,56.0,42.3,30.31,ENE,67,9.2,9.2,60,0.00,CLR,SCT,0.00,WeatherDisplay:10.37,2013-04-21 15:59:00,
2013-04-21 12:00:00,56.0,42.3,30.31,ENE,67,9.2,9.2,60,0.00,CLR,SCT,0.00,WeatherDisplay:10.37,2013-04-21 16:00:00,
2013-04-21 12:01:00,56.2,42.1,30.31,ENE,67,4.6,4.6,59,0.00,CLR,SCT,0.00,WeatherDisplay:10.37,2013-04-21 16:01:00,
2013-04-21 12:06:00,56.6,42.4,30.31,ENE,67,3.5,3.5,59,0.00,CLR,SCT,0.00,WeatherDisplay:10.37,2013-04-21 16:06:00,
2013-04-21 12:07:00,56.7,42.5,30.31,ENE,67,5.0,5.0,59,0.00,CLR,SCT,0.00,WeatherDisplay:10.37,2013-04-21 16:07:00,
2013-04-21 12:08:00,56.7,42.5,30.31,ENE,67,4.6,4.6,59,0.00,CLR,SCT,0.00,WeatherDisplay:10.37,2013-04-21 16:08:00,
2013-04-21 12:10:00,56.9,42.7,30.31,ENE,67,3.5,3.5,59,0.00,CLR,SCT,0.00,WeatherDisplay:10.37,2013-04-21 16:10:00,
2013-04-21 12:12:00,57.0,43.2,30.31,ENE,67,3.5,3.5,60,0.00,CLR,SCT,0.00,WeatherDisplay:10.37,2013-04-21 16:12:00,
2013-04-21 12:15:00,57.2,42.5,30.31,ENE,67,4.6,4.6,58,0.00,CLR,SCT,0.00,WeatherDisplay:10.37,2013-04-21 16:15:00,
2013-04-21 12:16:00,57.2,42.1,30.31,ENE,67,5.0,5.0,57,0.00,CLR,SCT,0.00,WeatherDisplay:10.37,2013-04-21 16:16:00,
2013-04-21 12:17:00,57.2,42.1,30.31,ENE,67,4.6,4.6,57,0.00,CLR,SCT,0.00,WeatherDisplay:10.37,2013-04-21 16:17:00,
2013-04-21 12:19:00,57.3,42.2,30.31,ENE,67,4.6,4.6,57,0.00,CLR,SCT,0.00,WeatherDisplay:10.37,2013-04-21 16:19:00,
2013-04-21 12:21:00,57.3,42.2,30.31,ENE,67,0.0,0.0,57,0.00,CLR,SCT,0.00,WeatherDisplay:10.37,2013-04-21 16:21:00,
2013-04-21 12:22:00,57.5,42.8,30.31,ENE,67,0.0,0.0,58,0.00,CLR,SCT,0.00,WeatherDisplay:10.37,2013-04-21 16:22:00,
2013-04-21 12:24:00,57.6,42.5,30.31,ENE,65,8.1,8.1,57,0.00,CLR,SCT,0.00,WeatherDisplay:10.37,2013-04-21 16:24:00,
2013-04-21 12:27:00,58.0,41.4,30.30,ENE,70,11.5,11.5,54,0.00,CLR,SCT,0.00,WeatherDisplay:10.37,2013-04-21 16:27:00,
2013-04-21 12:28:00,58.0,41.4,30.30,ENE,70,9.2,9.2,54,0.00,CLR,SCT,0.00,WeatherDisplay:10.37,2013-04-21 16:28:00,
2013-04-21 12:30:00,57.8,41.7,30.30,ENE,70,6.9,6.9,55,0.00,CLR,SCT,0.00,WeatherDisplay:10.37,2013-04-21 16:30:00,
2013-04-21 12:34:00,57.6,41.1,30.31,NNE,13,6.9,6.9,54,0.00,CLR,SCT,0.00,WeatherDisplay:10.37,2013-04-21 16:34:00,
2013-04-21 12:35:00,57.5,41.4,30.31,NNE,13,6.9,6.9,55,0.00,CLR,SCT,0.00,WeatherDisplay:10.37,2013-04-21 16:35:00,
2013-04-21 12:40:00,57.6,41.1,30.30,NNE,20,3.5,3.5,54,0.00,CLR,SCT,0.00,WeatherDisplay:10.37,2013-04-21 16:40:00,
2013-04-21 12:42:00,57.8,41.3,30.30,NNE,19,6.9,6.9,54,0.00,CLR,SCT,0.00,WeatherDisplay:10.37,2013-04-21 16:42:00,
2013-04-21 12:43:00,57.8,41.3,30.30,NNE,19,3.5,3.5,54,0.00,CLR,SCT,0.00,WeatherDisplay:10.37,2013-04-21 16:43:00,
2013-04-21 12:46:00,57.8,41.3,30.29,NNE,19,9.2,9.2,54,0.00,CLR,SCT,0.00,WeatherDisplay:10.37,2013-04-21 16:46:00,
2013-04-21 12:47:00,58.0,41.4,30.29,NNE,30,11.5,11.5,54,0.00,CLR,SCT,0.00,WeatherDisplay:10.37,2013-04-21 16:47:00,
2013-04-21 12:51:00,58.1,41.5,30.29,NE,41,8.1,8.1,54,0.00,CLR,SCT,0.00,WeatherDisplay:10.37,2013-04-21 16:51:00,
2013-04-21 12:52:00,58.3,41.7,30.29,NE,34,9.0,9.0,54,0.00,CLR,SCT,0.00,WeatherDisplay:10.37,2013-04-21 16:52:00,
2013-04-21 12:54:00,58.3,41.2,30.29,NNE,15,10.4,10.4,53,0.00,CLR,SCT,0.00,WeatherDisplay:10.37,2013-04-21 16:54:00,
2013-04-21 12:55:00,58.3,40.7,30.29,NNE,32,10.4,10.4,52,0.00,CLR,SCT,0.00,WeatherDisplay:10.37,2013-04-21 16:55:00,
2013-04-21 13:00:00,58.1,40.6,30.29,NNE,13,6.9,6.9,52,0.00,CLR,SCT,0.00,WeatherDisplay:10.37,2013-04-21 17:00:00,
2013-04-21 13:01:00,58.3,41.2,30.29,NNE,20,5.8,5.8,53,0.00,CLR,SCT,0.00,WeatherDisplay:10.37,2013-04-21 17:01:00,
2013-04-21 13:02:00,58.3,41.2,30.29,North,355,5.8,5.8,53,0.00,CLR,SCT,0.00,WeatherDisplay:10.37,2013-04-21 17:02:00,
2013-04-21 13:04:00,58.4,40.8,30.29,North,5,9.2,9.2,52,0.00,CLR,SCT,0.00,WeatherDisplay:10.37,2013-04-21 17:04:00,
2013-04-21 13:06:00,58.7,41.1,30.29,NNE,28,6.9,6.9,52,0.00,CLR,SCT,0.00,WeatherDisplay:10.37,2013-04-21 17:06:00,
2013-04-21 13:07:00,58.7,41.6,30.29,NNE,28,6.0,6.0,53,0.00,CLR,SCT,0.00,WeatherDisplay:10.37,2013-04-21 17:07:00,
2013-04-21 13:08:00,58.9,41.3,30.29,NE,34,9.2,9.2,52,0.00,CLR,SCT,0.00,WeatherDisplay:10.37,2013-04-21 17:08:00,
2013-04-21 13:11:00,59.0,40.4,30.28,North,360,3.5,3.5,50,0.00,CLR,SCT,0.00,WeatherDisplay:10.37,2013-04-21 17:11:00,
2013-04-21 13:14:00,59.2,41.1,30.28,North,360,3.5,3.5,51,0.00,CLR,SCT,0.00,WeatherDisplay:10.37,2013-04-21 17:14:00,
2013-04-21 13:16:00,59.3,41.2,30.28,North,360,12.7,12.7,51,0.00,CLR,SCT,0.00,WeatherDisplay:10.37,2013-04-21 17:16:00,
2013-04-21 13:17:00,59.3,41.2,30.28,North,360,11.5,11.5,51,0.00,CLR,SCT,0.00,WeatherDisplay:10.37,2013-04-21 17:17:00,
2013-04-21 13:18:00,59.5,41.3,30.28,North,360,11.5,11.5,51,0.00,CLR,SCT,0.00,WeatherDisplay:10.37,2013-04-21 17:18:00,
2013-04-21 13:19:00,59.5,41.3,30.28,North,5,9.2,9.2,51,0.00,CLR,SCT,0.00,WeatherDisplay:10.37,2013-04-21 17:19:00,
2013-04-21 13:21:00,59.6,41.4,30.28,NNE,25,10.4,10.4,51,0.00,CLR,SCT,0.00,WeatherDisplay:10.37,2013-04-21 17:21:00,
2013-04-21 13:22:00,59.6,40.9,30.28,NNE,32,5.8,5.8,50,0.00,CLR,SCT,0.00,WeatherDisplay:10.37,2013-04-21 17:22:00,
2013-04-21 13:23:00,59.8,41.6,30.28,ENE,59,10.4,10.4,51,0.00,CLR,SCT,0.00,WeatherDisplay:10.37,2013-04-21 17:23:00,
2013-04-21 13:27:00,59.8,40.6,30.28,North,355,6.9,6.9,49,0.00,CLR,SCT,0.00,WeatherDisplay:10.37,2013-04-21 17:27:00,
2013-04-21 13:28:00,59.8,40.1,30.28,North,355,4.6,4.6,48,0.00,CLR,SCT,0.00,WeatherDisplay:10.37,2013-04-21 17:28:00,
2013-04-21 13:29:00,59.8,40.6,30.28,NNE,24,4.6,4.6,49,0.00,CLR,SCT,0.00,WeatherDisplay:10.37,2013-04-21 17:29:00,
2013-04-21 13:31:00,59.9,41.2,30.27,NNE,30,6.9,6.9,50,0.00,CLR,SCT,0.00,WeatherDisplay:10.37,2013-04-21 17:31:00,
2013-04-21 13:32:00,59.9,41.2,30.27,NNE,30,2.3,2.3,50,0.00,CLR,SCT,0.00,WeatherDisplay:10.37,2013-04-21 17:32:00,
2013-04-21 13:34:00,60.1,41.4,30.27,NE,42,10.4,10.4,50,0.00,CLR,SCT,0.00,WeatherDisplay:10.37,2013-04-21 17:34:00,
2013-04-21 13:35:00,60.1,41.4,30.27,NE,49,9.2,9.2,50,0.00,CLR,SCT,0.00,WeatherDisplay:10.37,2013-04-21 17:35:00,
2013-04-21 13:37:00,60.1,40.3,30.27,NE,44,4.6,4.6,48,0.00,CLR,SCT,0.00,WeatherDisplay:10.37,2013-04-21 17:37:00,
2013-04-21 13:40:00,60.1,40.9,30.27,NNE,23,9.2,9.2,49,0.00,CLR,SCT,0.00,WeatherDisplay:10.37,2013-04-21 17:40:00,
2013-04-21 13:41:00,60.1,40.3,30.27,NNE,23,10.4,10.4,48,0.00,CLR,SCT,0.00,WeatherDisplay:10.37,2013-04-21 17:41:00,
2013-04-21 13:42:00,60.1,39.8,30.27,NNE,22,3.5,3.5,47,0.00,CLR,SCT,0.00,WeatherDisplay:10.37,2013-04-21 17:42:00,
2013-04-21 13:46:00,59.9,39.6,30.27,North,11,3.5,3.5,47,0.00,CLR,SCT,0.00,WeatherDisplay:10.37,2013-04-21 17:46:00,
2013-04-21 13:47:00,59.9,40.1,30.27,North,11,3.5,3.5,48,0.00,CLR,SCT,0.00,WeatherDisplay:10.37,2013-04-21 17:47:00,
2013-04-21 13:48:00,59.9,41.2,30.27,NNE,19,8.0,8.0,50,0.00,CLR,SCT,0.00,WeatherDisplay:10.37,2013-04-21 17:48:00,
2013-04-21 13:52:00,60.1,40.3,30.27,NNE,23,6.0,6.0,48,0.00,CLR,SCT,0.00,WeatherDisplay:10.37,2013-04-21 17:52:00,
2013-04-21 13:54:00,60.1,40.3,30.27,NNE,30,9.2,9.2,48,0.00,CLR,SCT,0.00,WeatherDisplay:10.37,2013-04-21 17:54:00,
2013-04-21 13:58:00,60.1,39.8,30.27,NNE,22,4.6,4.6,47,0.00,CLR,SCT,0.00,WeatherDisplay:10.37,2013-04-21 17:58:00,
2013-04-21 13:59:00,60.1,39.8,30.27,NNE,32,5.8,5.8,47,0.00,CLR,SCT,0.00,WeatherDisplay:10.37,2013-04-21 17:59:00,
2013-04-21 14:02:00,60.1,40.3,30.26,NE,50,5.8,5.8,48,0.00,CLR,SCT,0.00,WeatherDisplay:10.37,2013-04-21 18:02:00,
2013-04-21 14:05:00,60.1,39.8,30.26,ENE,59,2.3,2.3,47,0.00,CLR,SCT,0.00,WeatherDisplay:10.37,2013-04-21 18:05:00,
2013-04-21 14:07:00,60.1,39.8,30.26,ENE,59,0.0,0.0,47,0.00,CLR,SCT,0.00,WeatherDisplay:10.37,2013-04-21 18:07:00,
2013-04-21 14:08:00,60.1,39.2,30.26,ENE,58,3.5,3.5,46,0.00,CLR,SCT,0.00,WeatherDisplay:10.37,2013-04-21 18:08:00,
2013-04-21 14:10:00,59.9,39.1,30.26,NNE,20,6.9,6.9,46,0.00,CLR,SCT,0.00,WeatherDisplay:10.37,2013-04-21 18:10:00,
2013-04-21 14:13:00,60.1,39.8,30.26,NNE,23,3.5,3.5,47,0.00,CLR,SCT,0.00,WeatherDisplay:10.37,2013-04-21 18:13:00,
2013-04-21 14:15:00,60.1,39.8,30.26,NNE,23,2.3,2.3,47,0.00,CLR,SCT,0.00,WeatherDisplay:10.37,2013-04-21 18:15:00,
2013-04-21 14:19:00,60.5,39.6,30.26,North,11,8.1,8.1,46,0.00,CLR,SCT,0.00,WeatherDisplay:10.37,2013-04-21 18:19:00,
2013-04-21 14:20:00,60.5,39.0,30.26,North,11,8.1,8.1,45,0.00,CLR,SCT,0.00,WeatherDisplay:10.37,2013-04-21 18:20:00,
2013-04-21 14:21:00,60.7,39.8,30.26,NNE,26,11.5,11.5,46,0.00,CLR,SCT,0.00,WeatherDisplay:10.37,2013-04-21 18:21:00,
2013-04-21 14:25:00,60.9,40.0,30.26,NNE,28,3.5,3.5,46,0.00,CLR,SCT,0.00,WeatherDisplay:10.37,2013-04-21 18:25:00,
2013-04-21 14:26:00,61.0,40.6,30.26,NNE,28,2.3,2.3,47,0.00,CLR,SCT,0.00,WeatherDisplay:10.37,2013-04-21 18:26:00,
2013-04-21 14:30:00,61.3,40.3,30.26,NNE,15,11.5,11.5,46,0.00,CLR,SCT,0.00,WeatherDisplay:10.37,2013-04-21 18:30:00,
2013-04-21 14:31:00,61.3,40.3,30.26,NNE,15,11.5,11.5,46,0.00,CLR,SCT,0.00,WeatherDisplay:10.37,2013-04-21 18:31:00,
2013-04-21 14:32:00,61.3,40.3,30.26,North,9,5.8,5.8,46,0.00,CLR,SCT,0.00,WeatherDisplay:10.37,2013-04-21 18:32:00,
2013-04-21 14:33:00,61.5,39.9,30.26,NNE,13,5.8,5.8,45,0.00,CLR,SCT,0.00,WeatherDisplay:10.37,2013-04-21 18:33:00,
2013-04-21 14:36:00,61.5,39.9,30.26,NNE,13,1.1,0.0,45,0.00,CLR,SCT,0.00,WeatherDisplay:10.37,2013-04-21 18:36:00,
2013-04-21 14:38:00,61.6,40.0,30.26,North,10,3.5,3.5,45,0.00,CLR,SCT,0.00,WeatherDisplay:10.37,2013-04-21 18:38:00,
2013-04-21 14:40:00,61.6,40.0,30.26,North,355,3.5,3.5,45,0.00,CLR,SCT,0.00,WeatherDisplay:10.37,2013-04-21 18:40:00,
2013-04-21 14:41:00,61.8,39.6,30.26,North,355,7.0,7.0,44,0.00,CLR,SCT,0.00,WeatherDisplay:10.37,2013-04-21 18:41:00,
2013-04-21 14:45:00,62.0,39.8,30.25,North,11,11.5,11.5,44,0.00,CLR,SCT,0.00,WeatherDisplay:10.37,2013-04-21 18:45:00,
2013-04-21 14:46:00,61.8,39.6,30.25,North,11,3.5,3.5,44,0.00,CLR,SCT,0.00,WeatherDisplay:10.37,2013-04-21 18:46:00,
2013-04-21 14:47:00,61.8,40.2,30.25,NNE,12,1.1,0.0,45,0.00,CLR,SCT,0.00,WeatherDisplay:10.37,2013-04-21 18:47:00,
2013-04-21 14:48:00,62.0,40.4,30.26,North,11,11.5,11.5,45,0.00,CLR,SCT,0.00,WeatherDisplay:10.37,2013-04-21 18:48:00,
2013-04-21 14:49:00,62.0,39.8,30.26,NE,36,12.7,12.7,44,0.00,CLR,SCT,0.00,WeatherDisplay:10.37,2013-04-21 18:49:00,
2013-04-21 14:50:00,62.0,39.8,30.26,NE,36,12.7,12.7,44,0.00,CLR,SCT,0.00,WeatherDisplay:10.37,2013-04-21 18:50:00,
2013-04-21 14:54:00,61.8,39.1,30.25,NNE,26,11.5,11.5,43,0.00,CLR,SCT,0.00,WeatherDisplay:10.37,2013-04-21 18:54:00,
2013-04-21 14:55:00,61.8,39.6,30.25,NNE,26,11.5,11.5,44,0.00,CLR,SCT,0.00,WeatherDisplay:10.37,2013-04-21 18:55:00,
2013-04-21 15:00:00,61.8,39.1,30.25,North,360,10.4,10.4,43,0.00,CLR,SCT,0.00,WeatherDisplay:10.37,2013-04-21 19:00:00,
2013-04-21 15:01:00,61.8,37.2,30.25,NE,39,10.4,10.4,40,0.00,CLR,SCT,0.00,WeatherDisplay:10.37,2013-04-21 19:01:00,
2013-04-21 15:02:00,61.8,39.1,30.25,NNE,26,9.2,9.2,43,0.00,CLR,SCT,0.00,WeatherDisplay:10.37,2013-04-21 19:02:00,
2013-04-21 15:03:00,61.8,38.4,30.25,NNE,26,2.3,0.0,42,0.00,CLR,SCT,0.00,WeatherDisplay:10.37,2013-04-21 19:03:00,
2013-04-21 15:05:00,61.8,39.1,30.24,NNE,30,3.5,3.5,43,0.00,CLR,SCT,0.00,WeatherDisplay:10.37,2013-04-21 19:05:00,
2013-04-21 15:06:00,61.8,39.1,30.24,NNE,30,3.5,3.5,43,0.00,CLR,SCT,0.00,WeatherDisplay:10.37,2013-04-21 19:06:00,
2013-04-21 15:08:00,61.8,39.1,30.24,NNE,21,10.4,10.4,43,0.00,CLR,SCT,0.00,WeatherDisplay:10.37,2013-04-21 19:08:00,
2013-04-21 15:10:00,61.8,39.1,30.24,NNE,24,10.4,10.4,43,0.00,CLR,SCT,0.00,WeatherDisplay:10.37,2013-04-21 19:10:00,
2013-04-21 15:11:00,62.0,38.6,30.24,North,5,6.0,6.0,42,0.00,CLR,SCT,0.00,WeatherDisplay:10.37,2013-04-21 19:11:00,
2013-04-21 15:13:00,62.0,38.0,30.24,North,355,3.5,3.5,41,0.00,CLR,SCT,0.00,WeatherDisplay:10.37,2013-04-21 19:13:00,
2013-04-21 15:14:00,62.0,38.0,30.24,NNE,23,11.5,11.5,41,0.00,CLR,SCT,0.00,WeatherDisplay:10.37,2013-04-21 19:14:00,
2013-04-21 15:15:00,62.0,38.6,30.24,NNE,22,10.4,10.4,42,0.00,CLR,SCT,0.00,WeatherDisplay:10.37,2013-04-21 19:15:00,
2013-04-21 15:17:00,62.0,38.6,30.24,NNE,22,3.5,3.5,42,0.00,CLR,SCT,0.00,WeatherDisplay:10.37,2013-04-21 19:17:00,
2013-04-21 15:19:00,62.0,38.0,30.24,North,5,5.8,5.8,41,0.00,CLR,SCT,0.00,WeatherDisplay:10.37,2013-04-21 19:19:00,
2013-04-21 15:20:00,62.0,38.0,30.24,North,5,5.8,5.8,41,0.00,CLR,SCT,0.00,WeatherDisplay:10.37,2013-04-21 19:20:00,
2013-04-21 15:21:00,62.0,38.6,30.24,North,5,5.8,5.8,42,0.00,CLR,SCT,0.00,WeatherDisplay:10.37,2013-04-21 19:21:00,
2013-04-21 15:22:00,62.1,38.7,30.24,North,5,5.8,0.0,42,0.00,CLR,SCT,0.00,WeatherDisplay:10.37,2013-04-21 19:22:00,
2013-04-21 15:25:00,62.3,39.5,30.24,North,5,5.0,7.2,43,0.00,CLR,SCT,0.00,WeatherDisplay:10.37,2013-04-21 19:25:00,
2013-04-21 15:27:00,62.4,39.0,30.24,North,11,3.5,3.5,42,0.00,CLR,SCT,0.00,WeatherDisplay:10.37,2013-04-21 19:27:00,
2013-04-21 15:30:00,62.6,39.8,30.24,North,11,1.0,1.0,43,0.00,CLR,SCT,0.00,WeatherDisplay:10.37,2013-04-21 19:30:00,
2013-04-21 15:31:00,62.6,39.8,30.24,NNE,32,11.0,11.0,43,0.00,CLR,SCT,0.00,WeatherDisplay:10.37,2013-04-21 19:31:00,
2013-04-21 15:32:00,62.6,39.2,30.24,NNE,31,11.5,11.5,42,0.00,CLR,SCT,0.00,WeatherDisplay:10.37,2013-04-21 19:32:00,
2013-04-21 15:33:00,62.7,39.9,30.24,NNE,31,10.4,10.4,43,0.00,CLR,SCT,0.00,WeatherDisplay:10.37,2013-04-21 19:33:00,
2013-04-21 15:35:00,62.7,39.3,30.24,NE,44,10.4,10.4,42,0.00,CLR,SCT,0.00,WeatherDisplay:10.37,2013-04-21 19:35:00,
2013-04-21 15:37:00,62.6,38.6,30.24,NE,44,3.5,3.5,41,0.00,CLR,SCT,0.00,WeatherDisplay:10.37,2013-04-21 19:37:00,
2013-04-21 15:41:00,62.4,39.0,30.24,NNE,33,10.0,10.0,42,0.00,CLR,SCT,0.00,WeatherDisplay:10.37,2013-04-21 19:41:00,
2013-04-21 15:42:00,62.4,39.0,30.24,NNE,16,11.5,11.5,42,0.00,CLR,SCT,0.00,WeatherDisplay:10.37,2013-04-21 19:42:00,
2013-04-21 15:43:00,62.4,38.4,30.23,NNE,16,8.1,8.1,41,0.00,CLR,SCT,0.00,WeatherDisplay:10.37,2013-04-21 19:43:00,
2013-04-21 15:44:00,62.4,39.0,30.23,NNE,16,1.1,0.0,42,0.00,CLR,SCT,0.00,WeatherDisplay:10.37,2013-04-21 19:44:00,
2013-04-21 15:45:00,62.4,38.4,30.23,NNE,16,3.5,3.5,41,0.00,CLR,SCT,0.00,WeatherDisplay:10.37,2013-04-21 19:45:00,
2013-04-21 15:47:00,62.4,38.4,30.23,NNE,16,4.6,4.6,41,0.00,CLR,SCT,0.00,WeatherDisplay:10.37,2013-04-21 19:47:00,
2013-04-21 15:48:00,62.4,39.0,30.23,NNE,18,6.9,6.9,42,0.00,CLR,SCT,0.00,WeatherDisplay:10.37,2013-04-21 19:48:00,
2013-04-21 15:49:00,62.4,38.4,30.23,NNE,18,6.9,6.9,41,0.00,CLR,SCT,0.00,WeatherDisplay:10.37,2013-04-21 19:49:00,
2013-04-21 15:53:00,62.7,39.3,30.23,ENE,61,6.9,6.9,42,0.00,CLR,SCT,0.00,WeatherDisplay:10.37,2013-04-21 19:53:00,
2013-04-21 15:54:00,62.7,39.9,30.23,NNE,22,11.5,11.5,43,0.00,CLR,SCT,0.00,WeatherDisplay:10.37,2013-04-21 19:54:00,
2013-04-21 15:55:00,62.7,39.3,30.23,NNE,23,11.5,11.5,42,0.00,CLR,SCT,0.00,WeatherDisplay:10.37,2013-04-21 19:55:00,
2013-04-21 16:00:00,62.6,38.6,30.22,NNE,23,2.3,2.3,41,0.00,CLR,SCT,0.00,WeatherDisplay:10.37,2013-04-21 20:00:00,
2013-04-21 16:02:00,62.6,39.2,30.22,NE,36,11.5,11.5,42,0.00,CLR,SCT,0.00,WeatherDisplay:10.37,2013-04-21 20:02:00,
2013-04-21 16:04:00,62.6,38.6,30.22,NE,36,6.9,6.9,41,0.00,CLR,SCT,0.00,WeatherDisplay:10.37,2013-04-21 20:04:00,
2013-04-21 16:05:00,62.6,39.2,30.22,North,5,6.9,6.9,42,0.00,CLR,SCT,0.00,WeatherDisplay:10.37,2013-04-21 20:05:00,
2013-04-21 16:08:00,62.6,38.6,30.22,NNE,12,4.6,4.6,41,0.00,CLR,SCT,0.00,WeatherDisplay:10.37,2013-04-21 20:08:00,
2013-04-21 16:10:00,62.6,38.6,30.22,NNE,12,4.6,4.6,41,0.00,CLR,SCT,0.00,WeatherDisplay:10.37,2013-04-21 20:10:00,
2013-04-21 16:12:00,62.7,38.6,30.21,NE,38,4.6,0.0,41,0.00,CLR,SCT,0.00,WeatherDisplay:10.37,2013-04-21 20:12:00,
2013-04-21 16:13:00,62.7,39.3,30.21,NE,38,5.8,5.8,42,0.00,CLR,SCT,0.00,WeatherDisplay:10.37,2013-04-21 20:13:00,
2013-04-21 16:17:00,62.9,39.4,30.21,NE,45,9.2,9.2,42,0.00,CLR,SCT,0.00,WeatherDisplay:10.37,2013-04-21 20:17:00,
2013-04-21 16:18:00,62.9,39.4,30.21,NE,48,9.2,9.2,42,0.00,CLR,SCT,0.00,WeatherDisplay:10.37,2013-04-21 20:18:00,
2013-04-21 16:19:00,62.9,40.0,30.21,NE,38,4.6,4.6,43,0.00,CLR,SCT,0.00,WeatherDisplay:10.37,2013-04-21 20:19:00,
2013-04-21 16:21:00,63.1,39.6,30.21,NE,47,10.4,10.4,42,0.00,CLR,SCT,0.00,WeatherDisplay:10.37,2013-04-21 20:21:00,
2013-04-21 16:22:00,63.1,39.6,30.21,NNE,28,9.2,9.2,42,0.00,CLR,SCT,0.00,WeatherDisplay:10.37,2013-04-21 20:22:00,
2013-04-21 16:24:00,63.1,39.6,30.21,NNE,28,9.2,9.2,42,0.00,CLR,SCT,0.00,WeatherDisplay:10.37,2013-04-21 20:24:00,
2013-04-21 16:26:00,63.1,39.0,30.21,NE,49,10.4,10.4,41,0.00,CLR,SCT,0.00,WeatherDisplay:10.37,2013-04-21 20:26:00,
2013-04-21 16:27:00,63.1,39.0,30.21,NE,41,10.4,10.4,41,0.00,CLR,SCT,0.00,WeatherDisplay:10.37,2013-04-21 20:27:00,
2013-04-21 16:30:00,63.1,39.0,30.21,NE,45,9.2,9.2,41,0.00,CLR,SCT,0.00,WeatherDisplay:10.37,2013-04-21 20:30:00,
2013-04-21 16:31:00,63.1,39.0,30.21,NNW,341,10.4,10.4,41,0.00,CLR,SCT,0.00,WeatherDisplay:10.37,2013-04-21 20:31:00,
2013-04-21 16:36:00,63.1,38.4,30.21,NNE,24,11.5,11.5,40,0.00,CLR,SCT,0.00,WeatherDisplay:10.37,2013-04-21 20:36:00,
2013-04-21 16:37:00,63.1,38.4,30.21,NNE,14,11.5,11.5,40,0.00,CLR,SCT,0.00,WeatherDisplay:10.37,2013-04-21 20:37:00,
2013-04-21 16:38:00,62.9,38.2,30.20,NNE,14,9.2,9.2,40,0.00,CLR,SCT,0.00,WeatherDisplay:10.37,2013-04-21 20:38:00,
2013-04-21 16:39:00,63.1,39.0,30.20,NNE,28,10.4,10.4,41,0.00,CLR,SCT,0.00,WeatherDisplay:10.37,2013-04-21 20:39:00,
2013-04-21 16:42:00,63.1,37.7,30.20,NNE,16,5.0,5.0,39,0.00,CLR,SCT,0.00,WeatherDisplay:10.37,2013-04-21 20:42:00,
2013-04-21 16:43:00,63.1,38.4,30.20,NNE,16,7.0,7.0,40,0.00,CLR,SCT,0.00,WeatherDisplay:10.37,2013-04-21 20:43:00,
2013-04-21 16:44:00,63.1,38.4,30.20,NNE,23,11.5,11.5,40,0.00,CLR,SCT,0.00,WeatherDisplay:10.37,2013-04-21 20:44:00,
2013-04-21 16:48:00,63.1,37.7,30.20,NNE,24,11.5,11.5,39,0.00,CLR,SCT,0.00,WeatherDisplay:10.37,2013-04-21 20:48:00,
2013-04-21 16:51:00,63.1,38.4,30.20,NNE,26,5.8,5.8,40,0.00,CLR,SCT,0.00,WeatherDisplay:10.37,2013-04-21 20:51:00,
2013-04-21 16:53:00,63.1,37.7,30.20,NNE,15,12.7,12.7,39,0.00,CLR,SCT,0.00,WeatherDisplay:10.37,2013-04-21 20:53:00,
2013-04-21 16:56:00,63.1,38.4,30.19,NE,42,6.9,6.9,40,0.00,CLR,SCT,0.00,WeatherDisplay:10.37,2013-04-21 20:56:00,
2013-04-21 16:58:00,63.2,39.1,30.19,NE,42,5.8,5.8,41,0.00,CLR,SCT,0.00,WeatherDisplay:10.37,2013-04-21 20:58:00,
2013-04-21 17:02:00,63.2,38.5,30.19,NE,53,9.2,9.2,40,0.00,CLR,SCT,0.00,WeatherDisplay:10.37,2013-04-21 21:02:00,
2013-04-21 17:05:00,63.2,37.8,30.19,ENE,65,10.4,10.4,39,0.00,CLR,SCT,0.00,WeatherDisplay:10.37,2013-04-21 21:05:00,
2013-04-21 17:07:00,63.2,37.8,30.19,ENE,63,5.8,5.8,39,0.00,CLR,SCT,0.00,WeatherDisplay:10.37,2013-04-21 21:07:00,
2013-04-21 17:08:00,63.2,38.5,30.19,ENE,63,3.5,3.5,40,0.00,CLR,SCT,0.00,WeatherDisplay:10.37,2013-04-21 21:08:00,
2013-04-21 17:11:00,63.2,38.5,30.19,ENE,71,5.0,5.0,40,0.00,CLR,SCT,0.00,WeatherDisplay:10.37,2013-04-21 21:11:00,
2013-04-21 17:14:00,63.4,38.6,30.19,NNE,32,9.2,9.2,40,0.00,CLR,SCT,0.00,WeatherDisplay:10.37,2013-04-21 21:14:00,
2013-04-21 17:16:00,63.4,39.3,30.19,NNE,30,9.2,9.2,41,0.00,CLR,SCT,0.00,WeatherDisplay:10.37,2013-04-21 21:16:00,
2013-04-21 17:18:00,63.5,38.7,30.19,NNE,28,11.5,11.5,40,0.00,CLR,SCT,0.00,WeatherDisplay:10.37,2013-04-21 21:18:00,
2013-04-21 17:19:00,63.5,38.7,30.19,NNE,28,12.7,12.7,40,0.00,CLR,SCT,0.00,WeatherDisplay:10.37,2013-04-21 21:19:00,
2013-04-21 17:20:00,63.5,38.7,30.19,NNE,28,12.7,12.7,40,0.00,CLR,SCT,0.00,WeatherDisplay:10.37,2013-04-21 21:20:00,
2013-04-21 17:22:00,63.5,38.1,30.19,NE,42,10.4,10.4,39,0.00,CLR,SCT,0.00,WeatherDisplay:10.37,2013-04-21 21:22:00,
2013-04-21 17:25:00,63.5,38.7,30.19,ENE,58,5.8,5.8,40,0.00,CLR,SCT,0.00,WeatherDisplay:10.37,2013-04-21 21:25:00,
2013-04-21 17:26:00,63.5,38.1,30.19,ENE,57,6.0,6.0,39,0.00,CLR,SCT,0.00,WeatherDisplay:10.37,2013-04-21 21:26:00,
2013-04-21 17:27:00,63.5,38.1,30.19,NE,39,6.9,6.9,39,0.00,CLR,SCT,0.00,WeatherDisplay:10.37,2013-04-21 21:27:00,
2013-04-21 17:28:00,63.5,38.1,30.19,NE,39,10.0,10.0,39,0.00,CLR,SCT,0.00,WeatherDisplay:10.37,2013-04-21 21:28:00,
2013-04-21 17:31:00,63.7,38.3,30.19,NE,36,10.4,10.4,39,0.00,CLR,SCT,0.00,WeatherDisplay:10.37,2013-04-21 21:31:00,
2013-04-21 17:32:00,63.7,38.3,30.19,NNE,16,10.4,10.4,39,0.00,CLR,SCT,0.00,WeatherDisplay:10.37,2013-04-21 21:32:00,
2013-04-21 17:34:00,63.5,37.4,30.19,NNE,15,6.9,6.9,38,0.00,CLR,SCT,0.00,WeatherDisplay:10.37,2013-04-21 21:34:00,
2013-04-21 17:35:00,63.5,37.4,30.19,NNE,15,4.6,4.6,38,0.00,CLR,SCT,0.00,WeatherDisplay:10.37,2013-04-21 21:35:00,
2013-04-21 17:37:00,63.5,36.7,30.19,NNE,15,6.0,6.0,37,0.00,CLR,SCT,0.00,WeatherDisplay:10.37,2013-04-21 21:37:00,
2013-04-21 17:39:00,63.4,37.3,30.19,NNE,15,6.9,6.9,38,0.00,CLR,SCT,0.00,WeatherDisplay:10.37,2013-04-21 21:39:00,
2013-04-21 17:41:00,63.4,37.3,30.19,NNE,15,3.5,3.5,38,0.00,CLR,SCT,0.00,WeatherDisplay:10.37,2013-04-21 21:41:00,
2013-04-21 17:42:00,63.4,37.3,30.19,NNE,15,1.1,1.1,38,0.00,CLR,SCT,0.00,WeatherDisplay:10.37,2013-04-21 21:42:00,
2013-04-21 17:43:00,63.4,36.7,30.19,NNE,15,3.5,3.5,37,0.00,CLR,SCT,0.00,WeatherDisplay:10.37,2013-04-21 21:43:00,
2013-04-21 17:46:00,63.5,37.4,30.19,NNE,17,6.9,6.9,38,0.00,CLR,SCT,0.00,WeatherDisplay:10.37,2013-04-21 21:46:00,
2013-04-21 17:48:00,63.7,38.3,30.19,NNE,16,8.1,8.1,39,0.00,CLR,SCT,0.00,WeatherDisplay:10.37,2013-04-21 21:48:00,
2013-04-21 17:49:00,63.7,38.3,30.19,NNE,17,8.1,8.1,39,0.00,CLR,SCT,0.00,WeatherDisplay:10.37,2013-04-21 21:49:00,
2013-04-21 17:53:00,63.9,37.8,30.19,NNE,26,10.4,10.4,38,0.00,CLR,SCT,0.00,WeatherDisplay:10.37,2013-04-21 21:53:00,
2013-04-21 17:54:00,63.9,38.4,30.19,NNE,17,9.0,9.0,39,0.00,CLR,SCT,0.00,WeatherDisplay:10.37,2013-04-21 21:54:00,
2013-04-21 17:57:00,63.7,37.6,30.19,NNE,32,10.4,10.4,38,0.00,CLR,SCT,0.00,WeatherDisplay:10.37,2013-04-21 21:57:00,
2013-04-21 17:58:00,63.7,37.6,30.19,NNE,33,9.2,9.2,38,0.00,CLR,SCT,0.00,WeatherDisplay:10.37,2013-04-21 21:58:00,
2013-04-21 18:00:00,63.5,37.4,30.19,NE,38,8.1,8.1,38,0.00,CLR,SCT,0.00,WeatherDisplay:10.37,2013-04-21 22:00:00,
2013-04-21 18:01:00,63.4,37.3,30.19,NE,38,8.1,8.1,38,0.00,CLR,SCT,0.00,WeatherDisplay:10.37,2013-04-21 22:01:00,
2013-04-21 18:02:00,63.4,37.3,30.19,NE,44,9.2,9.2,38,0.00,CLR,SCT,0.00,WeatherDisplay:10.37,2013-04-21 22:02:00,
2013-04-21 18:03:00,63.4,37.3,30.19,NE,43,9.2,9.2,38,0.00,CLR,SCT,0.00,WeatherDisplay:10.37,2013-04-21 22:03:00,
2013-04-21 18:07:00,63.2,37.8,30.19,NE,43,8.1,8.1,39,0.00,CLR,SCT,0.00,WeatherDisplay:10.37,2013-04-21 22:07:00,
2013-04-21 18:10:00,63.1,37.7,30.19,NNE,28,9.2,9.2,39,0.00,CLR,SCT,0.00,WeatherDisplay:10.37,2013-04-21 22:10:00,
2013-04-21 18:12:00,62.9,37.5,30.19,NNE,28,7.0,7.0,39,0.00,CLR,SCT,0.00,WeatherDisplay:10.37,2013-04-21 22:12:00,
2013-04-21 18:13:00,62.9,37.5,30.19,NNE,28,6.9,6.9,39,0.00,CLR,SCT,0.00,WeatherDisplay:10.37,2013-04-21 22:13:00,
2013-04-21 18:14:00,62.9,37.5,30.19,NE,35,7.0,7.0,39,0.00,CLR,SCT,0.00,WeatherDisplay:10.37,2013-04-21 22:14:00,
2013-04-21 18:15:00,62.9,37.5,30.19,NE,36,9.2,9.2,39,0.00,CLR,SCT,0.00,WeatherDisplay:10.37,2013-04-21 22:15:00,
2013-04-21 18:17:00,62.7,37.4,30.19,NNE,30,10.4,10.4,39,0.00,CLR,SCT,0.00,WeatherDisplay:10.37,2013-04-21 22:17:00,
2013-04-21 18:18:00,62.7,37.4,30.19,NE,52,9.2,9.2,39,0.00,CLR,SCT,0.00,WeatherDisplay:10.37,2013-04-21 22:18:00,
2013-04-21 18:20:00,62.7,37.4,30.19,ENE,60,9.2,9.2,39,0.00,CLR,SCT,0.00,WeatherDisplay:10.37,2013-04-21 22:20:00,
2013-04-21 18:22:00,62.6,37.3,30.19,NE,38,9.2,9.2,39,0.00,CLR,SCT,0.00,WeatherDisplay:10.37,2013-04-21 22:22:00,
2013-04-21 18:23:00,62.6,37.3,30.19,NE,38,5.8,5.8,39,0.00,CLR,SCT,0.00,WeatherDisplay:10.37,2013-04-21 22:23:00,
2013-04-21 18:24:00,62.6,37.3,30.19,NE,38,6.9,6.9,39,0.00,CLR,SCT,0.00,WeatherDisplay:10.37,2013-04-21 22:24:00,
2013-04-21 18:25:00,62.6,37.3,30.19,NE,44,10.4,10.4,39,0.00,CLR,SCT,0.00,WeatherDisplay:10.37,2013-04-21 22:25:00,
2013-04-21 18:26:00,62.6,37.3,30.19,NNE,32,11.5,11.5,39,0.00,CLR,SCT,0.00,WeatherDisplay:10.37,2013-04-21 22:26:00,
2013-04-21 18:30:00,62.6,37.3,30.19,NE,35,10.4,10.4,39,0.00,CLR,SCT,0.00,WeatherDisplay:10.37,2013-04-21 22:30:00,
2013-04-21 18:31:00,62.6,37.3,30.19,NE,37,9.2,9.2,39,0.00,CLR,SCT,0.00,WeatherDisplay:10.37,2013-04-21 22:31:00,
2013-04-21 18:32:00,62.4,36.4,30.19,NE,37,6.9,6.9,38,0.00,CLR,SCT,0.00,WeatherDisplay:10.37,2013-04-21 22:32:00,
2013-04-21 18:35:00,62.4,37.1,30.19,NE,39,9.2,9.2,39,0.00,CLR,SCT,0.00,WeatherDisplay:10.37,2013-04-21 22:35:00,
2013-04-21 18:37:00,62.3,37.0,30.19,NE,43,5.0,5.0,39,0.00,CLR,SCT,0.00,WeatherDisplay:10.37,2013-04-21 22:37:00,
2013-04-21 18:39:00,62.3,37.0,30.19,NE,43,5.8,5.8,39,0.00,CLR,SCT,0.00,WeatherDisplay:10.37,2013-04-21 22:39:00,
2013-04-21 18:41:00,62.1,36.8,30.19,NE,52,6.0,6.0,39,0.00,CLR,SCT,0.00,WeatherDisplay:10.37,2013-04-21 22:41:00,
2013-04-21 18:42:00,62.1,36.8,30.19,NE,46,6.0,6.0,39,0.00,CLR,SCT,0.00,WeatherDisplay:10.37,2013-04-21 22:42:00,
2013-04-21 18:45:00,62.1,36.8,30.19,NE,42,9.2,9.2,39,0.00,CLR,SCT,0.00,WeatherDisplay:10.37,2013-04-21 22:45:00,
2013-04-21 18:46:00,62.1,36.8,30.19,NE,50,6.9,6.9,39,0.00,CLR,SCT,0.00,WeatherDisplay:10.37,2013-04-21 22:46:00,
2013-04-21 18:48:00,62.1,36.8,30.19,ENE,65,6.9,6.9,39,0.00,CLR,SCT,0.00,WeatherDisplay:10.37,2013-04-21 22:48:00,
2013-04-21 18:49:00,62.3,36.4,30.19,ENE,64,9.0,9.0,38,0.00,CLR,SCT,0.00,WeatherDisplay:10.37,2013-04-21 22:49:00,
2013-04-21 18:51:00,62.3,36.4,30.18,ENE,64,9.2,9.2,38,0.00,CLR,SCT,0.00,WeatherDisplay:10.37,2013-04-21 22:51:00,
2013-04-21 18:52:00,62.3,36.4,30.18,ENE,64,4.0,4.0,38,0.00,CLR,SCT,0.00,WeatherDisplay:10.37,2013-04-21 22:52:00,
2013-04-21 18:54:00,62.3,36.4,30.18,ENE,63,4.6,4.6,38,0.00,CLR,SCT,0.00,WeatherDisplay:10.37,2013-04-21 22:54:00,
2013-04-21 18:55:00,62.3,36.4,30.18,NE,35,9.2,9.2,38,0.00,CLR,SCT,0.00,WeatherDisplay:10.37,2013-04-21 22:55:00,
2013-04-21 18:56:00,62.3,36.4,30.18,NE,35,8.1,8.1,38,0.00,CLR,SCT,0.00,WeatherDisplay:10.37,2013-04-21 22:56:00,
2013-04-21 18:57:00,62.3,36.4,30.18,NE,35,5.0,5.0,38,0.00,CLR,SCT,0.00,WeatherDisplay:10.37,2013-04-21 22:57:00,
2013-04-21 19:01:00,62.1,36.8,30.18,NE,36,3.5,3.5,39,0.00,CLR,SCT,0.00,WeatherDisplay:10.37,2013-04-21 23:01:00,
2013-04-21 19:02:00,62.1,36.8,30.18,NE,49,5.0,5.0,39,0.00,CLR,SCT,0.00,WeatherDisplay:10.37,2013-04-21 23:02:00,
2013-04-21 19:03:00,62.1,36.8,30.18,ENE,59,5.8,5.8,39,0.00,CLR,SCT,0.00,WeatherDisplay:10.37,2013-04-21 23:03:00,
2013-04-21 19:07:00,62.0,37.4,30.18,East,79,6.9,6.9,40,0.00,CLR,SCT,0.00,WeatherDisplay:10.37,2013-04-21 23:07:00,
2013-04-21 19:08:00,62.0,37.4,30.18,East,79,6.9,6.9,40,0.00,CLR,SCT,0.00,WeatherDisplay:10.37,2013-04-21 23:08:00,
2013-04-21 19:10:00,61.8,36.6,30.18,East,81,11.5,11.5,39,0.00,CLR,SCT,0.00,WeatherDisplay:10.37,2013-04-21 23:10:00,
2013-04-21 19:11:00,61.6,36.4,30.18,East,84,11.5,11.5,39,0.00,CLR,SCT,0.00,WeatherDisplay:10.37,2013-04-21 23:11:00,
2013-04-21 19:13:00,61.5,36.9,30.18,East,79,8.1,8.1,40,0.00,CLR,SCT,0.00,WeatherDisplay:10.37,2013-04-21 23:13:00,
2013-04-21 19:15:00,61.3,37.4,30.19,East,86,5.0,5.0,41,0.00,CLR,SCT,0.00,WeatherDisplay:10.37,2013-04-21 23:15:00,
2013-04-21 19:17:00,61.2,37.3,30.19,East,97,10.4,10.4,41,0.00,CLR,SCT,0.00,WeatherDisplay:10.37,2013-04-21 23:17:00,
2013-04-21 19:18:00,61.0,36.5,30.19,East,94,12.7,12.7,40,0.00,CLR,SCT,0.00,WeatherDisplay:10.37,2013-04-21 23:18:00,
2013-04-21 19:19:00,60.9,36.4,30.19,East,101,10.4,10.4,40,0.00,CLR,SCT,0.00,WeatherDisplay:10.37,2013-04-21 23:19:00,
2013-04-21 19:21:00,60.9,35.8,30.19,East,101,11.5,11.5,39,0.00,CLR,SCT,0.00,WeatherDisplay:10.37,2013-04-21 23:21:00,
2013-04-21 19:23:00,60.7,36.2,30.19,East,96,6.9,6.9,40,0.00,CLR,SCT,0.00,WeatherDisplay:10.37,2013-04-21 23:23:00,
2013-04-21 19:25:00,60.5,36.7,30.19,East,92,9.2,9.2,41,0.00,CLR,SCT,0.00,WeatherDisplay:10.37,2013-04-21 23:25:00,
2013-04-21 19:26:00,60.5,36.7,30.19,East,90,5.8,5.8,41,0.00,CLR,SCT,0.00,WeatherDisplay:10.37,2013-04-21 23:26:00,
2013-04-21 19:28:00,60.2,37.0,30.19,East,89,5.8,5.8,42,0.00,CLR,SCT,0.00,WeatherDisplay:10.37,2013-04-21 23:28:00,
2013-04-21 19:29:00,60.2,37.0,30.19,East,90,6.0,6.0,42,0.00,CLR,SCT,0.00,WeatherDisplay:10.37,2013-04-21 23:29:00,
2013-04-21 19:30:00,60.1,36.9,30.19,East,86,9.0,9.0,42,0.00,CLR,SCT,0.00,WeatherDisplay:10.37,2013-04-21 23:30:00,
2013-04-21 19:32:00,59.8,36.6,30.19,East,88,9.2,9.2,42,0.00,CLR,SCT,0.00,WeatherDisplay:10.37,2013-04-21 23:32:00,
2013-04-21 19:34:00,59.5,36.4,30.19,East,88,9.2,9.2,42,0.00,CLR,SCT,0.00,WeatherDisplay:10.37,2013-04-21 23:34:00,
2013-04-21 19:35:00,59.3,36.2,30.19,East,90,9.0,9.0,42,0.00,CLR,SCT,0.00,WeatherDisplay:10.37,2013-04-21 23:35:00,
2013-04-21 19:36:00,59.3,36.2,30.19,East,90,9.2,9.2,42,0.00,CLR,SCT,0.00,WeatherDisplay:10.37,2013-04-21 23:36:00,
2013-04-21 19:37:00,59.2,36.1,30.19,East,88,8.0,8.0,42,0.00,CLR,SCT,0.00,WeatherDisplay:10.37,2013-04-21 23:37:00,
2013-04-21 19:38:00,59.0,38.8,30.19,East,88,8.1,8.1,47,0.00,CLR,SCT,0.00,WeatherDisplay:10.37,2013-04-21 23:38:00,
2013-04-21 19:42:00,58.6,36.2,30.19,East,88,6.0,6.0,43,0.00,CLR,SCT,0.00,WeatherDisplay:10.37,2013-04-21 23:42:00,
2013-04-21 19:43:00,58.4,36.0,30.19,East,87,5.8,5.8,43,0.00,CLR,SCT,0.00,WeatherDisplay:10.37,2013-04-21 23:43:00,
2013-04-21 19:44:00,58.4,36.0,30.20,East,87,4.6,4.6,43,0.00,CLR,SCT,0.00,WeatherDisplay:10.37,2013-04-21 23:44:00,
2013-04-21 19:47:00,58.1,36.3,30.20,East,87,5.8,5.8,44,0.00,CLR,SCT,0.00,WeatherDisplay:10.37,2013-04-21 23:47:00,
2013-04-21 19:49:00,57.8,36.0,30.20,East,88,9.2,9.2,44,0.00,CLR,SCT,0.00,WeatherDisplay:10.37,2013-04-21 23:49:00,
2013-04-21 19:51:00,57.6,35.8,30.20,East,87,6.9,6.9,44,0.00,CLR,SCT,0.00,WeatherDisplay:10.37,2013-04-21 23:51:00,
2013-04-21 19:52:00,57.5,35.7,30.20,East,87,6.9,6.9,44,0.00,CLR,SCT,0.00,WeatherDisplay:10.37,2013-04-21 23:52:00,
2013-04-21 19:53:00,57.5,35.7,30.20,East,87,4.6,4.6,44,0.00,CLR,SCT,0.00,WeatherDisplay:10.37,2013-04-21 23:53:00,
2013-04-21 19:57:00,57.0,34.7,30.21,East,96,5.8,5.8,43,0.00,CLR,SCT,0.00,WeatherDisplay:10.37,2013-04-21 23:57:00,
2013-04-21 19:58:00,57.0,34.7,30.21,East,96,4.6,4.6,43,0.00,CLR,SCT,0.00,WeatherDisplay:10.37,2013-04-21 23:58:00,
2013-04-21 19:59:00,56.9,35.2,30.21,East,96,6.0,6.0,44,0.00,CLR,SCT,0.00,WeatherDisplay:10.37,2013-04-21 23:59:00,
2013-04-21 20:00:00,56.9,35.2,30.21,East,96,6.0,6.0,44,0.00,CLR,SCT,0.00,WeatherDisplay:10.37,2013-04-22 00:00:00,
2013-04-21 20:05:00,56.5,34.8,30.21,East,86,4.0,4.0,44,0.00,CLR,SCT,0.00,WeatherDisplay:10.37,2013-04-22 00:05:00,
2013-04-21 20:07:00,56.3,35.2,30.20,East,86,3.5,3.5,45,0.00,CLR,SCT,0.00,WeatherDisplay:10.37,2013-04-22 00:07:00,
2013-04-21 20:08:00,56.3,35.2,30.20,East,86,4.0,4.0,45,0.00,CLR,SCT,0.00,WeatherDisplay:10.37,2013-04-22 00:08:00,
2013-04-21 20:11:00,56.0,34.9,30.20,East,86,5.0,5.0,45,0.00,CLR,SCT,0.00,WeatherDisplay:10.37,2013-04-22 00:11:00,
2013-04-21 20:13:00,55.7,34.7,30.20,East,87,5.8,5.8,45,0.00,CLR,SCT,0.00,WeatherDisplay:10.37,2013-04-22 00:13:00,
2013-04-21 20:14:00,55.7,34.7,30.20,East,88,6.0,6.0,45,0.00,CLR,SCT,0.00,WeatherDisplay:10.37,2013-04-22 00:14:00,
2013-04-21 20:17:00,55.6,34.0,30.20,East,95,5.0,5.0,44,0.00,CLR,SCT,0.00,WeatherDisplay:10.37,2013-04-22 00:17:00,
2013-04-21 20:19:00,55.7,33.5,30.20,SE,132,9.2,9.2,43,0.00,CLR,SCT,0.00,WeatherDisplay:10.37,2013-04-22 00:19:00,
2013-04-21 20:20:00,55.9,33.7,30.20,ESE,107,6.9,6.9,43,0.00,CLR,SCT,0.00,WeatherDisplay:10.37,2013-04-22 00:20:00,
2013-04-21 20:21:00,55.9,33.7,30.20,ESE,106,6.9,6.9,43,0.00,CLR,SCT,0.00,WeatherDisplay:10.37,2013-04-22 00:21:00,
2013-04-21 20:22:00,56.2,34.0,30.20,ESE,103,5.8,5.8,43,0.00,CLR,SCT,0.00,WeatherDisplay:10.37,2013-04-22 00:22:00,
2013-04-21 20:25:00,56.5,33.7,30.21,ESE,102,6.9,6.9,42,0.00,CLR,SCT,0.00,WeatherDisplay:10.37,2013-04-22 00:25:00,
2013-04-21 20:27:00,56.7,33.8,30.21,East,92,4.6,4.6,42,0.00,CLR,SCT,0.00,WeatherDisplay:10.37,2013-04-22 00:27:00,
2013-04-21 20:28:00,56.7,33.8,30.21,East,96,5.8,5.8,42,0.00,CLR,SCT,0.00,WeatherDisplay:10.37,2013-04-22 00:28:00,
2013-04-21 20:31:00,57.0,34.1,30.21,East,96,4.6,4.6,42,0.00,CLR,SCT,0.00,WeatherDisplay:10.37,2013-04-22 00:31:00,
2013-04-21 20:33:00,57.0,34.1,30.21,East,96,3.5,3.5,42,0.00,CLR,SCT,0.00,WeatherDisplay:10.37,2013-04-22 00:33:00,
2013-04-21 20:35:00,57.0,33.5,30.21,ESE,104,11.5,11.5,41,0.00,CLR,SCT,0.00,WeatherDisplay:10.37,2013-04-22 00:35:00,
2013-04-21 20:37:00,57.0,33.5,30.22,ESE,121,6.9,6.9,41,0.00,CLR,SCT,0.00,WeatherDisplay:10.37,2013-04-22 00:37:00,
2013-04-21 20:39:00,57.0,33.5,30.22,East,100,10.0,10.0,41,0.00,CLR,SCT,0.00,WeatherDisplay:10.37,2013-04-22 00:39:00,
2013-04-21 20:41:00,57.0,33.5,30.22,SE,144,11.5,11.5,41,0.00,CLR,SCT,0.00,WeatherDisplay:10.37,2013-04-22 00:41:00,
2013-04-21 20:43:00,57.0,33.5,30.22,ESE,114,5.8,5.8,41,0.00,,SCT,0.00,WeatherDisplay:10.37,2013-04-22 00:43:00,
2013-04-21 20:44:00,57.0,33.5,30.22,ESE,114,6.9,6.9,41,0.00,,SCT,0.00,WeatherDisplay:10.37,2013-04-22 00:44:00,
2013-04-21 20:45:00,57.0,33.5,30.22,ESE,114,3.5,3.5,41,0.00,,SCT,0.00,WeatherDisplay:10.37,2013-04-22 00:45:00,
2013-04-21 20:48:00,57.0,33.5,30.22,SE,140,6.9,6.9,41,0.00,,SCT,0.00,WeatherDisplay:10.37,2013-04-22 00:48:00,
2013-04-21 20:51:00,56.9,33.4,30.22,ESE,109,6.9,6.9,41,0.00,,SCT,0.00,WeatherDisplay:10.37,2013-04-22 00:51:00,
2013-04-21 20:52:00,56.9,33.4,30.22,ESE,107,6.9,6.9,41,0.00,,SCT,0.00,WeatherDisplay:10.37,2013-04-22 00:52:00,
2013-04-21 20:53:00,56.9,33.4,30.22,ESE,107,5.8,5.8,41,0.00,,SCT,0.00,WeatherDisplay:10.37,2013-04-22 00:53:00,
2013-04-21 20:56:00,56.9,33.4,30.22,East,98,10.4,10.4,41,0.00,,SCT,0.00,WeatherDisplay:10.37,2013-04-22 00:56:00,
2013-04-21 20:57:00,56.7,33.2,30.22,East,98,6.9,6.9,41,0.00,,SCT,0.00,WeatherDisplay:10.37,2013-04-22 00:57:00,
2013-04-21 20:59:00,56.7,33.2,30.22,East,98,6.0,6.0,41,0.00,,SCT,0.00,WeatherDisplay:10.37,2013-04-22 00:59:00,
2013-04-21 21:01:00,56.6,33.2,30.22,ESE,113,11.5,11.5,41,0.00,,SCT,0.00,WeatherDisplay:10.37,2013-04-22 01:01:00,
2013-04-21 21:02:00,56.5,33.1,30.22,East,101,9.2,9.2,41,0.00,,SCT,0.00,WeatherDisplay:10.37,2013-04-22 01:02:00,
2013-04-21 21:06:00,56.3,32.9,30.22,East,96,5.0,5.0,41,0.00,CLR,SCT,0.00,WeatherDisplay:10.37,2013-04-22 01:06:00,
2013-04-21 21:07:00,56.2,33.4,30.22,East,96,5.0,5.0,42,0.00,CLR,SCT,0.00,WeatherDisplay:10.37,2013-04-22 01:07:00,
2013-04-21 21:09:00,56.0,33.2,30.23,East,96,5.8,5.8,42,0.00,CLR,SCT,0.00,WeatherDisplay:10.37,2013-04-22 01:09:00,
2013-04-21 21:10:00,56.0,33.2,30.23,East,96,5.0,5.0,42,0.00,CLR,SCT,0.00,WeatherDisplay:10.37,2013-04-22 01:10:00,
2013-04-21 21:13:00,55.6,33.4,30.23,East,96,3.5,3.5,43,0.00,CLR,SCT,0.00,WeatherDisplay:10.37,2013-04-22 01:13:00,
2013-04-21 21:14:00,55.4,33.3,30.23,East,95,5.8,5.8,43,0.00,CLR,SCT,0.00,WeatherDisplay:10.37,2013-04-22 01:14:00,
2013-04-21 21:16:00,55.0,32.9,30.23,ESE,102,6.9,6.9,43,0.00,CLR,SCT,0.00,WeatherDisplay:10.37,2013-04-22 01:16:00,
2013-04-21 21:18:00,54.7,32.6,30.23,East,92,7.0,7.0,43,0.00,CLR,SCT,0.00,WeatherDisplay:10.37,2013-04-22 01:18:00,
2013-04-21 21:20:00,54.4,32.9,30.23,ESE,102,5.0,5.0,44,0.00,CLR,SCT,0.00,WeatherDisplay:10.37,2013-04-22 01:20:00,
2013-04-21 21:21:00,54.4,32.9,30.23,East,101,5.0,5.1,44,0.00,CLR,SCT,0.00,WeatherDisplay:10.37,2013-04-22 01:21:00,
2013-04-21 21:22:00,54.2,32.7,30.24,East,101,5.8,5.8,44,0.00,CLR,SCT,0.00,WeatherDisplay:10.37,2013-04-22 01:22:00,
2013-04-21 21:23:00,54.1,32.6,30.24,East,101,5.0,5.0,44,0.00,CLR,SCT,0.00,WeatherDisplay:10.37,2013-04-22 01:23:00,
2013-04-21 21:25:00,53.9,32.5,30.24,ENE,78,4.6,4.6,44,0.00,CLR,SCT,0.00,WeatherDisplay:10.37,2013-04-22 01:25:00,
2013-04-21 21:26:00,53.9,32.5,30.24,ENE,78,4.0,4.0,44,0.00,CLR,SCT,0.00,WeatherDisplay:10.37,2013-04-22 01:26:00,
2013-04-21 21:27:00,53.9,32.5,30.24,ENE,78,5.0,5.0,44,0.00,CLR,SCT,0.00,WeatherDisplay:10.37,2013-04-22 01:27:00,
2013-04-21 21:30:00,53.6,32.8,30.24,ENE,78,4.6,4.6,45,0.00,CLR,SCT,0.00,WeatherDisplay:10.37,2013-04-22 01:30:00,
2013-04-21 21:31:00,53.6,32.8,30.24,ENE,78,5.0,5.0,45,0.00,CLR,SCT,0.00,WeatherDisplay:10.37,2013-04-22 01:31:00,
2013-04-21 21:32:00,53.5,32.7,30.25,East,79,5.0,5.0,45,0.00,CLR,SCT,0.00,WeatherDisplay:10.37,2013-04-22 01:32:00,
2013-04-21 21:36:00,53.3,33.0,30.25,East,84,6.9,6.9,46,0.00,CLR,SCT,0.00,WeatherDisplay:10.37,2013-04-22 01:36:00,
2013-04-21 21:38:00,53.2,32.9,30.25,East,84,4.6,4.6,46,0.00,CLR,SCT,0.00,WeatherDisplay:10.37,2013-04-22 01:38:00,
2013-04-21 21:39:00,53.2,32.9,30.25,East,84,3.5,3.5,46,0.00,CLR,SCT,0.00,WeatherDisplay:10.37,2013-04-22 01:39:00,
2013-04-21 21:40:00,53.1,32.8,30.25,East,84,3.5,3.5,46,0.00,CLR,SCT,0.00,WeatherDisplay:10.37,2013-04-22 01:40:00,
2013-04-21 21:41:00,53.1,32.8,30.25,East,84,3.5,3.5,46,0.00,CLR,SCT,0.00,WeatherDisplay:10.37,2013-04-22 01:41:00,
2013-04-21 21:46:00,52.9,32.7,30.25,East,82,5.8,5.8,46,0.00,CLR,SCT,0.00,WeatherDisplay:10.37,2013-04-22 01:46:00,
2013-04-21 21:47:00,52.9,32.7,30.25,East,82,3.5,3.6,46,0.00,CLR,SCT,0.00,WeatherDisplay:10.37,2013-04-22 01:47:00,
2013-04-21 21:48:00,52.9,32.7,30.25,East,83,6.0,6.0,46,0.00,CLR,SCT,0.00,WeatherDisplay:10.37,2013-04-22 01:48:00,
2013-04-21 21:49:00,52.9,33.2,30.25,East,83,6.0,6.0,47,0.00,CLR,SCT,0.00,WeatherDisplay:10.37,2013-04-22 01:49:00,
2013-04-21 21:50:00,52.9,33.2,30.25,East,81,8.1,8.1,47,0.00,CLR,SCT,0.00,WeatherDisplay:10.37,2013-04-22 01:50:00,
2013-04-21 21:52:00,52.9,33.2,30.25,East,81,4.6,4.6,47,0.00,CLR,SCT,0.00,WeatherDisplay:10.37,2013-04-22 01:52:00,
2013-04-21 21:53:00,52.8,33.1,30.25,East,81,4.6,4.6,47,0.00,CLR,SCT,0.00,WeatherDisplay:10.37,2013-04-22 01:53:00,
2013-04-21 21:54:00,52.8,33.1,30.25,East,82,6.9,6.9,47,0.00,CLR,SCT,0.00,WeatherDisplay:10.37,2013-04-22 01:54:00,
2013-04-21 21:56:00,52.8,33.1,30.25,East,82,5.8,5.8,47,0.00,CLR,SCT,0.00,WeatherDisplay:10.37,2013-04-22 01:56:00,
2013-04-21 21:57:00,52.8,33.1,30.25,East,82,4.6,4.6,47,0.00,CLR,SCT,0.00,WeatherDisplay:10.37,2013-04-22 01:57:00,
2013-04-21 21:58:00,52.8,33.1,30.25,East,82,5.8,5.8,47,0.00,CLR,SCT,0.00,WeatherDisplay:10.37,2013-04-22 01:58:00,
2013-04-21 21:59:00,52.8,33.1,30.25,East,82,4.6,4.6,47,0.00,CLR,SCT,0.00,WeatherDisplay:10.37,2013-04-22 01:59:00,
2013-04-21 22:00:00,52.8,33.1,30.25,East,82,5.0,5.0,47,0.00,CLR,SCT,0.00,WeatherDisplay:10.37,2013-04-22 02:00:00,
2013-04-21 22:03:00,52.8,33.6,30.25,East,83,5.8,5.8,48,0.00,CLR,SCT,0.00,WeatherDisplay:10.37,2013-04-22 02:03:00,
2013-04-21 22:05:00,52.6,33.5,30.25,East,84,4.6,4.6,48,0.00,CLR,SCT,0.00,WeatherDisplay:10.37,2013-04-22 02:05:00,
2013-04-21 22:06:00,52.6,33.5,30.25,East,84,4.6,4.6,48,0.00,CLR,SCT,0.00,WeatherDisplay:10.37,2013-04-22 02:06:00,
2013-04-21 22:09:00,52.8,33.6,30.25,East,92,6.9,6.9,48,0.00,CLR,SCT,0.00,WeatherDisplay:10.37,2013-04-22 02:09:00,
2013-04-21 22:10:00,52.8,33.6,30.25,East,92,6.0,6.0,48,0.00,CLR,SCT,0.00,WeatherDisplay:10.37,2013-04-22 02:10:00,
2013-04-21 22:11:00,52.8,33.6,30.25,East,92,6.0,6.0,48,0.00,CLR,SCT,0.00,WeatherDisplay:10.37,2013-04-22 02:11:00,
2013-04-21 22:12:00,52.8,33.6,30.25,East,92,6.9,6.9,48,0.00,CLR,SCT,0.00,WeatherDisplay:10.37,2013-04-22 02:12:00,
2013-04-21 22:13:00,52.8,33.6,30.25,East,92,6.9,6.9,48,0.00,CLR,SCT,0.00,WeatherDisplay:10.37,2013-04-22 02:13:00,
2013-04-21 22:15:00,52.9,33.7,30.25,East,92,4.0,4.0,48,0.00,CLR,SCT,0.00,WeatherDisplay:10.37,2013-04-22 02:15:00,
2013-04-21 22:18:00,52.9,33.7,30.25,East,92,3.5,3.5,48,0.00,CLR,SCT,0.00,WeatherDisplay:10.37,2013-04-22 02:18:00,
2013-04-21 22:19:00,52.9,33.7,30.25,East,92,3.5,3.5,48,0.00,CLR,SCT,0.00,WeatherDisplay:10.37,2013-04-22 02:19:00,
2013-04-21 22:20:00,52.9,33.2,30.25,East,92,2.3,0.0,47,0.00,CLR,SCT,0.00,WeatherDisplay:10.37,2013-04-22 02:20:00,
2013-04-21 22:24:00,52.9,33.2,30.25,East,92,3.5,3.5,47,0.00,CLR,SCT,0.00,WeatherDisplay:10.37,2013-04-22 02:24:00,
2013-04-21 22:26:00,52.9,33.2,30.25,East,92,0.0,0.0,47,0.00,CLR,SCT,0.00,WeatherDisplay:10.37,2013-04-22 02:26:00,
2013-04-21 22:27:00,53.1,33.4,30.25,East,92,0.0,0.0,47,0.00,CLR,SCT,0.00,WeatherDisplay:10.37,2013-04-22 02:27:00,
2013-04-21 22:32:00,52.9,33.7,30.25,East,92,0.0,0.0,48,0.00,CLR,SCT,0.00,WeatherDisplay:10.37,2013-04-22 02:32:00,
2013-04-21 22:34:00,52.9,33.7,30.25,East,92,0.0,0.0,48,0.00,CLR,SCT,0.00,WeatherDisplay:10.37,2013-04-22 02:34:00,
2013-04-21 22:37:00,52.9,33.2,30.25,East,92,0.0,0.0,47,0.00,CLR,SCT,0.00,WeatherDisplay:10.37,2013-04-22 02:37:00,
2013-04-21 22:39:00,52.9,33.7,30.25,East,92,0.0,0.0,48,0.00,CLR,SCT,0.00,WeatherDisplay:10.37,2013-04-22 02:39:00,
2013-04-21 22:40:00,52.8,33.6,30.25,East,92,0.0,0.0,48,0.00,CLR,SCT,0.00,WeatherDisplay:10.37,2013-04-22 02:40:00,
2013-04-21 22:42:00,52.8,33.6,30.25,East,92,0.0,0.0,48,0.00,CLR,SCT,0.00,WeatherDisplay:10.37,2013-04-22 02:42:00,
2013-04-21 22:45:00,52.5,33.4,30.25,East,91,3.5,3.5,48,0.00,CLR,SCT,0.00,WeatherDisplay:10.37,2013-04-22 02:45:00,
2013-04-21 22:46:00,52.5,33.4,30.25,East,91,0.0,0.0,48,0.00,CLR,SCT,0.00,WeatherDisplay:10.37,2013-04-22 02:46:00,
2013-04-21 22:47:00,52.3,33.2,30.25,East,91,0.0,0.0,48,0.00,CLR,SCT,0.00,WeatherDisplay:10.37,2013-04-22 02:47:00,
2013-04-21 22:48:00,52.3,33.2,30.25,East,91,0.0,0.0,48,0.00,CLR,SCT,0.00,WeatherDisplay:10.37,2013-04-22 02:48:00,
2013-04-21 22:50:00,52.2,33.1,30.25,East,91,0.0,0.0,48,0.00,CLR,SCT,0.00,WeatherDisplay:10.37,2013-04-22 02:50:00,
2013-04-21 22:51:00,52.2,33.1,30.25,East,91,0.0,0.0,48,0.00,CLR,SCT,0.00,WeatherDisplay:10.37,2013-04-22 02:51:00,
2013-04-21 22:54:00,51.9,32.8,30.25,East,91,4.6,4.6,48,0.00,CLR,SCT,0.00,WeatherDisplay:10.37,2013-04-22 02:54:00,
2013-04-21 22:55:00,51.9,32.8,30.25,East,91,4.6,4.6,48,0.00,CLR,SCT,0.00,WeatherDisplay:10.37,2013-04-22 02:55:00,
2013-04-21 22:56:00,51.9,32.8,30.25,East,91,3.5,3.5,48,0.00,CLR,SCT,0.00,WeatherDisplay:10.37,2013-04-22 02:56:00,
2013-04-21 22:57:00,52.0,32.9,30.25,East,91,3.5,3.5,48,0.00,CLR,SCT,0.00,WeatherDisplay:10.37,2013-04-22 02:57:00,
2013-04-21 22:58:00,52.0,33.4,30.26,East,91,0.0,0.0,49,0.00,CLR,SCT,0.00,WeatherDisplay:10.37,2013-04-22 02:58:00,
2013-04-21 23:00:00,51.9,33.3,30.26,East,91,0.0,0.0,49,0.00,CLR,SCT,0.00,WeatherDisplay:10.37,2013-04-22 03:00:00,
2013-04-21 23:01:00,51.9,33.3,30.26,East,91,0.0,0.0,49,0.00,CLR,SCT,0.00,WeatherDisplay:10.37,2013-04-22 03:01:00,
2013-04-21 23:04:00,51.7,33.1,30.26,East,91,0.0,0.0,49,0.00,CLR,SCT,0.00,WeatherDisplay:10.37,2013-04-22 03:04:00,
2013-04-21 23:05:00,51.6,33.0,30.26,East,91,0.0,0.0,49,0.00,CLR,SCT,0.00,WeatherDisplay:10.37,2013-04-22 03:05:00,
2013-04-21 23:06:00,51.6,33.0,30.25,East,91,0.0,0.0,49,0.00,CLR,SCT,0.00,WeatherDisplay:10.37,2013-04-22 03:06:00,
2013-04-21 23:07:00,51.4,32.9,30.25,East,91,0.0,0.0,49,0.00,CLR,SCT,0.00,WeatherDisplay:10.37,2013-04-22 03:07:00,
2013-04-21 23:09:00,51.3,33.3,30.25,East,91,3.5,3.6,50,0.00,CLR,SCT,0.00,WeatherDisplay:10.37,2013-04-22 03:09:00,
2013-04-21 23:11:00,51.0,33.5,30.25,East,91,3.5,3.5,51,0.00,CLR,SCT,0.00,WeatherDisplay:10.37,2013-04-22 03:11:00,
2013-04-21 23:15:00,50.2,33.2,30.25,East,91,4.0,4.0,52,0.00,CLR,SCT,0.00,WeatherDisplay:10.37,2013-04-22 03:15:00,
2013-04-21 23:16:00,50.1,33.1,30.25,East,91,3.5,3.5,52,0.00,CLR,SCT,0.00,WeatherDisplay:10.37,2013-04-22 03:16:00,
2013-04-21 23:19:00,49.5,32.6,30.25,East,91,3.5,3.5,52,0.00,CLR,SCT,0.00,WeatherDisplay:10.37,2013-04-22 03:19:00,
2013-04-21 23:20:00,49.5,32.6,30.25,East,91,4.0,4.0,52,0.00,CLR,SCT,0.00,WeatherDisplay:10.37,2013-04-22 03:20:00,
2013-04-21 23:21:00,49.4,32.5,30.25,East,91,3.5,3.5,52,0.00,CLR,SCT,0.00,WeatherDisplay:10.37,2013-04-22 03:21:00,
2013-04-21 23:22:00,49.2,32.3,30.25,East,91,3.5,3.5,52,0.00,CLR,SCT,0.00,WeatherDisplay:10.37,2013-04-22 03:22:00,
2013-04-21 23:23:00,49.2,32.3,30.25,East,91,2.3,2.3,52,0.00,CLR,SCT,0.00,WeatherDisplay:10.37,2013-04-22 03:23:00,
2013-04-21 23:26:00,48.9,32.0,30.25,East,91,3.5,3.5,52,0.00,CLR,SCT,0.00,WeatherDisplay:10.37,2013-04-22 03:26:00,
2013-04-21 23:27:00,48.9,32.0,30.25,East,91,3.5,3.5,52,0.00,CLR,SCT,0.00,WeatherDisplay:10.37,2013-04-22 03:27:00,
2013-04-21 23:29:00,48.8,32.4,30.25,East,91,3.5,3.5,53,0.00,CLR,SCT,0.00,WeatherDisplay:10.37,2013-04-22 03:29:00,
2013-04-21 23:30:00,48.6,32.2,30.25,East,91,3.5,3.5,53,0.00,CLR,SCT,0.00,WeatherDisplay:10.37,2013-04-22 03:30:00,
2013-04-21 23:32:00,48.6,32.2,30.25,East,91,3.5,3.5,53,0.00,CLR,SCT,0.00,WeatherDisplay:10.37,2013-04-22 03:32:00,
2013-04-21 23:33:00,48.5,32.1,30.25,East,91,3.5,3.5,53,0.00,CLR,SCT,0.00,WeatherDisplay:10.37,2013-04-22 03:33:00,
2013-04-21 23:34:00,48.5,32.1,30.25,East,91,3.5,3.5,53,0.00,CLR,SCT,0.00,WeatherDisplay:10.37,2013-04-22 03:34:00,
2013-04-21 23:35:00,48.5,32.1,30.25,East,91,3.5,3.5,53,0.00,CLR,SCT,0.00,WeatherDisplay:10.37,2013-04-22 03:35:00,
2013-04-21 23:37:00,48.3,31.9,30.25,East,91,1.1,0.0,53,0.00,CLR,SCT,0.00,WeatherDisplay:10.37,2013-04-22 03:37:00,
2013-04-21 23:40:00,48.2,32.3,30.25,East,91,0.0,0.0,54,0.00,CLR,SCT,0.00,WeatherDisplay:10.37,2013-04-22 03:40:00,
2013-04-21 23:42:00,48.0,31.7,30.25,East,91,0.0,0.0,53,0.00,CLR,SCT,0.00,WeatherDisplay:10.37,2013-04-22 03:42:00,
2013-04-21 23:43:00,47.9,31.6,30.25,East,91,0.0,0.0,53,0.00,CLR,SCT,0.00,WeatherDisplay:10.37,2013-04-22 03:43:00,
2013-04-21 23:46:00,47.6,31.8,30.25,East,91,0.0,0.0,54,0.00,CLR,SCT,0.00,WeatherDisplay:10.37,2013-04-22 03:46:00,
2013-04-21 23:47:00,47.6,31.8,30.25,East,91,0.0,0.0,54,0.00,CLR,SCT,0.00,WeatherDisplay:10.37,2013-04-22 03:47:00,
2013-04-21 23:48:00,47.4,31.6,30.25,East,91,0.0,0.0,54,0.00,CLR,SCT,0.00,WeatherDisplay:10.37,2013-04-22 03:48:00,
2013-04-21 23:52:00,47.1,31.7,30.25,East,91,0.0,0.0,55,0.00,CLR,SCT,0.00,WeatherDisplay:10.37,2013-04-22 03:52:00,
2013-04-21 23:53:00,47.1,31.3,30.25,East,91,0.0,0.0,54,0.00,CLR,SCT,0.00,WeatherDisplay:10.37,2013-04-22 03:53:00,
2013-04-21 23:54:00,47.0,31.2,30.25,East,91,0.0,0.0,54,0.00,CLR,SCT,0.00,WeatherDisplay:10.37,2013-04-22 03:54:00,
2013-04-21 23:58:00,46.7,31.4,30.25,East,91,0.0,0.0,55,0.00,CLR,SCT,0.00,WeatherDisplay:10.37,2013-04-22 03:58:00,